| time (UTC) | temp F | wind direction | speed MPH | gust MPH | rain 1hr in | rain 24hr in | rain mn in | humidity % | barometer mb |
| 20260508153604 | 57 | 312 | 7.0 | 17.0 | 0.00 | 0.00 | 0.00 | 59 | 1014.4 |
| 20260508153404 | 58 | 308 | 6.0 | 17.0 | 0.00 | 0.00 | 0.00 | 59 | 1014.5 |
| 20260508153205 | 58 | 309 | 6.0 | 17.0 | 0.00 | 0.00 | 0.00 | 58 | 1014.4 |
| 20260508153004 | 58 | 308 | 6.0 | 17.0 | 0.00 | 0.00 | 0.00 | 56 | 1014.4 |
| 20260508152805 | 58 | 310 | 5.0 | 13.0 | 0.00 | 0.00 | 0.00 | 56 | 1014.3 |
| 20260508152603 | 59 | 311 | 5.0 | 13.0 | 0.00 | 0.00 | 0.00 | 55 | 1014.2 |
| 20260508152404 | 59 | 315 | 5.0 | 13.0 | 0.00 | 0.00 | 0.00 | 54 | 1014.3 |
| 20260508152203 | 59 | 313 | 6.0 | 14.0 | 0.00 | 0.00 | 0.00 | 54 | 1014.1 |
| 20260508152003 | 59 | 309 | 6.0 | 14.0 | 0.00 | 0.00 | 0.00 | 53 | 1014.1 |
| 20260508151803 | 59 | 299 | 5.0 | 14.0 | 0.00 | 0.00 | 0.00 | 52 | 1014.1 |
| 20260508151603 | 60 | 283 | 5.0 | 14.0 | 0.00 | 0.00 | 0.00 | 52 | 1014.0 |
| 20260508151405 | 60 | 263 | 5.0 | 14.0 | 0.00 | 0.00 | 0.00 | 52 | 1014.1 |
| 20260508151215 | 60 | 244 | 4.0 | 11.0 | 0.00 | 0.00 | 0.00 | 50 | 1014.1 |
| 20260508151003 | 60 | 226 | 4.0 | 11.0 | 0.00 | 0.00 | 0.00 | 47 | 1014.0 |
| 20260508150804 | 60 | 226 | 5.0 | 11.0 | 0.00 | 0.00 | 0.00 | 47 | 1013.8 |
| 20260508150604 | 60 | 228 | 5.0 | 11.0 | 0.00 | 0.00 | 0.00 | 47 | 1014.0 |
| 20260508150404 | 60 | 233 | 4.0 | 11.0 | 0.00 | 0.00 | 0.00 | 47 | 1013.9 |
| 20260508150203 | 60 | 240 | 4.0 | 11.0 | 0.00 | 0.00 | 0.00 | 46 | 1013.9 |
| 20260508150003 | 61 | 254 | 4.0 | 10.0 | 0.00 | 0.00 | 0.00 | 46 | 1013.9 |
| 20260508145803 | 61 | 260 | 4.0 | 8.0 | 0.00 | 0.00 | 0.00 | 47 | 1013.8 |
| 20260508145603 | 61 | 261 | 4.0 | 8.0 | 0.00 | 0.00 | 0.00 | 46 | 1013.9 |
| 20260508145403 | 61 | 260 | 4.0 | 11.0 | 0.00 | 0.00 | 0.00 | 47 | 1013.9 |
| 20260508145207 | 61 | 256 | 4.0 | 11.0 | 0.00 | 0.00 | 0.00 | 48 | 1013.8 |
| 20260508145004 | 61 | 253 | 4.0 | 11.0 | 0.00 | 0.00 | 0.00 | 47 | 1013.8 |
| 20260508144804 | 61 | 249 | 4.0 | 11.0 | 0.00 | 0.00 | 0.00 | 47 | 1013.8 |
| 20260508144606 | 61 | 245 | 4.0 | 11.0 | 0.00 | 0.00 | 0.00 | 47 | 1013.8 |
| 20260508144403 | 61 | 239 | 4.0 | 11.0 | 0.00 | 0.00 | 0.00 | 47 | 1013.7 |
| 20260508144204 | 61 | 244 | 5.0 | 12.0 | 0.00 | 0.00 | 0.00 | 47 | 1013.9 |
| 20260508144004 | 60 | 243 | 5.0 | 12.0 | 0.00 | 0.00 | 0.00 | 48 | 1013.8 |
| 20260508143804 | 60 | 243 | 5.0 | 12.0 | 0.00 | 0.00 | 0.00 | 48 | 1013.8 |
| 20260508143607 | 60 | 243 | 6.0 | 12.0 | 0.00 | 0.00 | 0.00 | 46 | 1013.8 |
| 20260508143403 | 60 | 236 | 6.0 | 12.0 | 0.00 | 0.00 | 0.00 | 47 | 1013.9 |
| 20260508143203 | 60 | 231 | 6.0 | 12.0 | 0.00 | 0.00 | 0.00 | 47 | 1013.8 |
| 20260508143004 | 60 | 231 | 6.0 | 12.0 | 0.00 | 0.00 | 0.00 | 47 | 1013.8 |
| 20260508142803 | 60 | 229 | 6.0 | 12.0 | 0.00 | 0.00 | 0.00 | 46 | 1013.8 |
| 20260508142604 | 60 | 227 | 6.0 | 16.0 | 0.00 | 0.00 | 0.00 | 47 | 1013.9 |
| 20260508142404 | 60 | 231 | 7.0 | 16.0 | 0.00 | 0.00 | 0.00 | 46 | 1013.8 |
| 20260508142203 | 60 | 231 | 7.0 | 16.0 | 0.00 | 0.00 | 0.00 | 47 | 1013.9 |
| 20260508142005 | 60 | 236 | 7.0 | 16.0 | 0.00 | 0.00 | 0.00 | 47 | 1013.9 |
| 20260508141803 | 60 | 240 | 7.0 | 16.0 | 0.00 | 0.00 | 0.00 | 48 | 1013.9 |
| 20260508141603 | 60 | 241 | 7.0 | 12.0 | 0.00 | 0.00 | 0.00 | 47 | 1013.8 |
| 20260508141404 | 60 | 243 | 6.0 | 14.0 | 0.00 | 0.00 | 0.00 | 47 | 1013.9 |
| 20260508141203 | 60 | 248 | 6.0 | 14.0 | 0.00 | 0.00 | 0.00 | 47 | 1013.8 |
| 20260508141004 | 60 | 247 | 6.0 | 14.0 | 0.00 | 0.00 | 0.00 | 47 | 1013.8 |
| 20260508140803 | 60 | 248 | 6.0 | 14.0 | 0.00 | 0.00 | 0.00 | 47 | 1013.8 |
| 20260508140606 | 60 | 247 | 6.0 | 14.0 | 0.00 | 0.00 | 0.00 | 48 | 1013.8 |
| 20260508140403 | 60 | 245 | 6.0 | 13.0 | 0.00 | 0.00 | 0.00 | 48 | 1013.8 |
| 20260508140203 | 60 | 244 | 6.0 | 13.0 | 0.00 | 0.00 | 0.00 | 48 | 1013.8 |
| 20260508140007 | 60 | 244 | 6.0 | 13.0 | 0.00 | 0.00 | 0.00 | 50 | 1013.8 |
| 20260508135803 | 60 | 247 | 6.0 | 13.0 | 0.00 | 0.00 | 0.00 | 50 | 1013.8 |
| 20260508135603 | 60 | 246 | 6.0 | 12.0 | 0.00 | 0.00 | 0.00 | 50 | 1013.7 |
| 20260508135404 | 60 | 246 | 6.0 | 13.0 | 0.00 | 0.00 | 0.00 | 50 | 1013.7 |
| 20260508135203 | 60 | 246 | 6.0 | 13.0 | 0.00 | 0.00 | 0.00 | 49 | 1013.7 |
| 20260508135006 | 60 | 245 | 6.0 | 13.0 | 0.00 | 0.00 | 0.00 | 49 | 1013.7 |
| 20260508134803 | 60 | 243 | 7.0 | 18.0 | 0.00 | 0.00 | 0.00 | 48 | 1013.8 |
| 20260508134603 | 60 | 252 | 6.0 | 18.0 | 0.00 | 0.00 | 0.00 | 49 | 1013.7 |
| 20260508134406 | 60 | 260 | 6.0 | 18.0 | 0.00 | 0.00 | 0.00 | 50 | 1013.7 |
| 20260508134204 | 60 | 259 | 6.0 | 18.0 | 0.00 | 0.00 | 0.00 | 51 | 1013.7 |
| 20260508134006 | 60 | 256 | 6.0 | 18.0 | 0.00 | 0.00 | 0.00 | 51 | 1013.7 |
| 20260508133803 | 60 | 254 | 6.0 | 13.0 | 0.00 | 0.00 | 0.00 | 51 | 1013.7 |
| 20260508133603 | 60 | 249 | 6.0 | 12.0 | 0.00 | 0.00 | 0.00 | 51 | 1013.7 |
| 20260508133403 | 60 | 251 | 6.0 | 12.0 | 0.00 | 0.00 | 0.00 | 52 | 1013.7 |
| 20260508133204 | 60 | 250 | 6.0 | 12.0 | 0.00 | 0.00 | 0.00 | 51 | 1013.6 |
| 20260508133004 | 60 | 252 | 6.0 | 12.0 | 0.00 | 0.00 | 0.00 | 52 | 1013.7 |
| 20260508132803 | 60 | 255 | 6.0 | 12.0 | 0.00 | 0.00 | 0.00 | 52 | 1013.7 |
| 20260508132604 | 60 | 255 | 6.0 | 12.0 | 0.00 | 0.00 | 0.00 | 52 | 1013.7 |
| 20260508132403 | 60 | 248 | 6.0 | 12.0 | 0.00 | 0.00 | 0.00 | 52 | 1013.7 |
| 20260508132204 | 60 | 244 | 6.0 | 12.0 | 0.00 | 0.00 | 0.00 | 52 | 1013.7 |
| 20260508132004 | 60 | 244 | 5.0 | 12.0 | 0.00 | 0.00 | 0.00 | 52 | 1013.6 |
| 20260508131803 | 60 | 242 | 4.0 | 12.0 | 0.00 | 0.00 | 0.00 | 52 | 1013.7 |
| 20260508131604 | 60 | 239 | 4.0 | 12.0 | 0.00 | 0.00 | 0.00 | 52 | 1013.7 |
| 20260508131403 | 60 | 241 | 4.0 | 12.0 | 0.00 | 0.00 | 0.00 | 53 | 1013.6 |
| 20260508131203 | 60 | 244 | 4.0 | 12.0 | 0.00 | 0.00 | 0.00 | 54 | 1013.6 |
| 20260508131004 | 60 | 244 | 4.0 | 12.0 | 0.00 | 0.00 | 0.00 | 53 | 1013.6 |
| 20260508130803 | 60 | 249 | 4.0 | 12.0 | 0.00 | 0.00 | 0.00 | 53 | 1013.6 |
| 20260508130603 | 60 | 247 | 4.0 | 10.0 | 0.00 | 0.00 | 0.00 | 54 | 1013.6 |
| 20260508130404 | 60 | 241 | 4.0 | 10.0 | 0.00 | 0.00 | 0.00 | 54 | 1013.6 |
| 20260508130204 | 59 | 238 | 4.0 | 10.0 | 0.00 | 0.00 | 0.00 | 54 | 1013.6 |
| 20260508130003 | 59 | 235 | 5.0 | 10.0 | 0.00 | 0.00 | 0.00 | 54 | 1013.6 |
| 20260508125806 | 59 | 229 | 4.0 | 10.0 | 0.00 | 0.00 | 0.00 | 53 | 1013.6 |
| 20260508125604 | 59 | 232 | 4.0 | 8.0 | 0.00 | 0.00 | 0.00 | 53 | 1013.6 |
| 20260508125403 | 59 | 240 | 4.0 | 8.0 | 0.00 | 0.00 | 0.00 | 53 | 1013.6 |
| 20260508125203 | 59 | 240 | 4.0 | 12.0 | 0.00 | 0.00 | 0.00 | 54 | 1013.6 |
| 20260508125004 | 59 | 243 | 4.0 | 12.0 | 0.00 | 0.00 | 0.00 | 54 | 1013.5 |
| 20260508124803 | 59 | 241 | 4.0 | 13.0 | 0.00 | 0.00 | 0.00 | 54 | 1013.5 |
| 20260508124604 | 59 | 239 | 4.0 | 13.0 | 0.00 | 0.00 | 0.00 | 55 | 1013.6 |
| 20260508124406 | 59 | 237 | 4.0 | 13.0 | 0.00 | 0.00 | 0.00 | 55 | 1013.6 |
| 20260508124207 | 59 | 242 | 4.0 | 13.0 | 0.00 | 0.00 | 0.00 | 56 | 1013.5 |
| 20260508124006 | 59 | 241 | 4.0 | 13.0 | 0.00 | 0.00 | 0.00 | 55 | 1013.5 |
| 20260508123804 | 59 | 244 | 4.0 | 11.0 | 0.00 | 0.00 | 0.00 | 56 | 1013.5 |
| 20260508123604 | 59 | 242 | 4.0 | 11.0 | 0.00 | 0.00 | 0.00 | 56 | 1013.5 |
| 20260508123403 | 59 | 238 | 5.0 | 11.0 | 0.00 | 0.00 | 0.00 | 56 | 1013.5 |
| 20260508123209 | 59 | 236 | 5.0 | 11.0 | 0.00 | 0.00 | 0.00 | 56 | 1013.5 |
| 20260508123003 | 58 | 239 | 5.0 | 11.0 | 0.00 | 0.00 | 0.00 | 56 | 1013.4 |
| 20260508122804 | 58 | 242 | 5.0 | 11.0 | 0.00 | 0.00 | 0.00 | 56 | 1013.5 |
| 20260508122604 | 58 | 246 | 5.0 | 14.0 | 0.00 | 0.00 | 0.00 | 56 | 1013.5 |
| 20260508122406 | 58 | 249 | 5.0 | 14.0 | 0.00 | 0.00 | 0.00 | 57 | 1013.4 |
| 20260508122203 | 58 | 250 | 5.0 | 14.0 | 0.00 | 0.00 | 0.00 | 56 | 1013.5 |
| 20260508122003 | 58 | 243 | 5.0 | 14.0 | 0.00 | 0.00 | 0.00 | 56 | 1013.5 |
| 20260508121803 | 58 | 240 | 5.0 | 14.0 | 0.00 | 0.00 | 0.00 | 55 | 1013.5 |
| 20260508121604 | 58 | 238 | 6.0 | 14.0 | 0.00 | 0.00 | 0.00 | 55 | 1013.4 |
| 20260508121403 | 58 | 237 | 6.0 | 14.0 | 0.00 | 0.00 | 0.00 | 56 | 1013.5 |
| 20260508121204 | 58 | 237 | 6.0 | 14.0 | 0.00 | 0.00 | 0.00 | 55 | 1013.5 |
| 20260508121004 | 58 | 241 | 7.0 | 14.0 | 0.00 | 0.00 | 0.00 | 54 | 1013.4 |
| 20260508120805 | 58 | 241 | 7.0 | 14.0 | 0.00 | 0.00 | 0.00 | 55 | 1013.4 |
| 20260508120603 | 58 | 242 | 7.0 | 14.0 | 0.00 | 0.00 | 0.00 | 56 | 1013.4 |
| 20260508120406 | 58 | 242 | 8.0 | 17.0 | 0.00 | 0.00 | 0.00 | 55 | 1013.4 |
| 20260508120204 | 58 | 240 | 8.0 | 17.0 | 0.00 | 0.00 | 0.00 | 55 | 1013.4 |
| 20260508120004 | 58 | 240 | 8.0 | 17.0 | 0.00 | 0.00 | 0.00 | 55 | 1013.4 |
| 20260508115804 | 58 | 239 | 8.0 | 17.0 | 0.00 | 0.00 | 0.00 | 55 | 1013.4 |
| 20260508115604 | 58 | 239 | 8.0 | 17.0 | 0.00 | 0.00 | 0.00 | 55 | 1013.4 |
| 20260508115403 | 58 | 237 | 8.0 | 16.0 | 0.00 | 0.00 | 0.00 | 56 | 1013.4 |
| 20260508115204 | 58 | 238 | 8.0 | 17.0 | 0.00 | 0.00 | 0.00 | 55 | 1013.4 |
| 20260508115003 | 58 | 238 | 9.0 | 17.0 | 0.00 | 0.00 | 0.00 | 55 | 1013.3 |
| 20260508114804 | 58 | 239 | 9.0 | 17.0 | 0.00 | 0.00 | 0.00 | 55 | 1013.2 |
| 20260508114604 | 58 | 241 | 8.0 | 17.0 | 0.00 | 0.00 | 0.00 | 54 | 1013.2 |
| 20260508114403 | 58 | 243 | 8.0 | 17.0 | 0.00 | 0.00 | 0.00 | 55 | 1013.2 |
| 20260508114204 | 58 | 242 | 8.0 | 17.0 | 0.00 | 0.00 | 0.00 | 55 | 1013.2 |
| 20260508114004 | 58 | 239 | 7.0 | 13.0 | 0.00 | 0.00 | 0.00 | 56 | 1013.1 |
| 20260508113804 | 58 | 238 | 6.0 | 13.0 | 0.00 | 0.00 | 0.00 | 56 | 1013.1 |
| 20260508113605 | 58 | 231 | 7.0 | 14.0 | 0.00 | 0.00 | 0.00 | 56 | 1013.2 |
| 20260508113404 | 58 | 228 | 6.0 | 14.0 | 0.00 | 0.00 | 0.00 | 56 | 1013.1 |
| 20260508113203 | 57 | 230 | 6.0 | 14.0 | 0.00 | 0.00 | 0.00 | 56 | 1013.1 |
| 20260508113005 | 57 | 229 | 7.0 | 14.0 | 0.00 | 0.00 | 0.00 | 56 | 1013.0 |
| 20260508112803 | 57 | 228 | 7.0 | 14.0 | 0.00 | 0.00 | 0.00 | 56 | 1013.0 |
| 20260508112604 | 57 | 230 | 7.0 | 14.0 | 0.00 | 0.00 | 0.00 | 56 | 1013.0 |
| 20260508112405 | 57 | 230 | 7.0 | 14.0 | 0.00 | 0.00 | 0.00 | 56 | 1013.0 |
| 20260508112203 | 57 | 229 | 7.0 | 14.0 | 0.00 | 0.00 | 0.00 | 57 | 1013.0 |
| 20260508112003 | 57 | 230 | 7.0 | 13.0 | 0.00 | 0.00 | 0.00 | 57 | 1013.0 |
| 20260508111803 | 57 | 231 | 8.0 | 18.0 | 0.00 | 0.00 | 0.00 | 57 | 1013.0 |
| 20260508111603 | 56 | 233 | 8.0 | 18.0 | 0.00 | 0.00 | 0.00 | 57 | 1013.0 |
| 20260508111403 | 57 | 232 | 8.0 | 18.0 | 0.00 | 0.00 | 0.00 | 57 | 1013.0 |
| 20260508111204 | 57 | 229 | 7.0 | 18.0 | 0.00 | 0.00 | 0.00 | 56 | 1013.0 |
| 20260508111003 | 57 | 226 | 6.0 | 18.0 | 0.00 | 0.00 | 0.00 | 58 | 1012.9 |
| 20260508110805 | 56 | 226 | 6.0 | 14.0 | 0.00 | 0.00 | 0.00 | 58 | 1012.9 |
| 20260508110603 | 56 | 223 | 5.0 | 14.0 | 0.00 | 0.00 | 0.00 | 60 | 1013.0 |
| 20260508110404 | 56 | 222 | 5.0 | 14.0 | 0.00 | 0.00 | 0.00 | 59 | 1013.0 |
| 20260508110204 | 56 | 228 | 6.0 | 14.0 | 0.00 | 0.00 | 0.00 | 59 | 1012.9 |
| 20260508110004 | 56 | 227 | 6.0 | 14.0 | 0.00 | 0.00 | 0.00 | 58 | 1012.9 |
| 20260508105804 | 56 | 223 | 6.0 | 13.0 | 0.00 | 0.00 | 0.00 | 59 | 1012.9 |
| 20260508105604 | 56 | 221 | 5.0 | 13.0 | 0.00 | 0.00 | 0.00 | 60 | 1012.8 |
| 20260508105406 | 56 | 213 | 5.0 | 13.0 | 0.00 | 0.00 | 0.00 | 61 | 1012.9 |
| 20260508105204 | 56 | 203 | 4.0 | 12.0 | 0.00 | 0.00 | 0.00 | 61 | 1012.8 |
| 20260508105004 | 56 | 211 | 5.0 | 14.0 | 0.00 | 0.00 | 0.00 | 61 | 1012.8 |
| 20260508104806 | 55 | 210 | 5.0 | 14.0 | 0.00 | 0.00 | 0.00 | 62 | 1012.9 |
| 20260508104607 | 55 | 209 | 5.0 | 14.0 | 0.00 | 0.00 | 0.00 | 61 | 1012.8 |
| 20260508104404 | 55 | 212 | 5.0 | 14.0 | 0.00 | 0.00 | 0.00 | 62 | 1012.8 |
| 20260508104203 | 55 | 216 | 6.0 | 14.0 | 0.00 | 0.00 | 0.00 | 61 | 1012.8 |
| 20260508104003 | 56 | 213 | 5.0 | 12.0 | 0.00 | 0.00 | 0.00 | 62 | 1012.8 |
| 20260508103803 | 56 | 220 | 6.0 | 12.0 | 0.00 | 0.00 | 0.00 | 62 | 1012.8 |
| 20260508103603 | 55 | 225 | 5.0 | 12.0 | 0.00 | 0.00 | 0.00 | 63 | 1012.8 |
| 20260508103403 | 55 | 231 | 6.0 | 11.0 | 0.00 | 0.00 | 0.00 | 63 | 1012.7 |
| 20260508103203 | 55 | 233 | 6.0 | 12.0 | 0.00 | 0.00 | 0.00 | 63 | 1012.7 |
| 20260508103003 | 55 | 235 | 6.0 | 12.0 | 0.00 | 0.00 | 0.00 | 64 | 1012.7 |
| 20260508102804 | 55 | 234 | 6.0 | 12.0 | 0.00 | 0.00 | 0.00 | 63 | 1012.7 |
| 20260508102608 | 55 | 235 | 7.0 | 12.0 | 0.00 | 0.00 | 0.00 | 63 | 1012.7 |
| 20260508102403 | 55 | 235 | 7.0 | 12.0 | 0.00 | 0.00 | 0.00 | 64 | 1012.7 |
| 20260508102203 | 55 | 236 | 7.0 | 14.0 | 0.00 | 0.00 | 0.00 | 64 | 1012.7 |
| 20260508102005 | 55 | 234 | 7.0 | 14.0 | 0.00 | 0.00 | 0.00 | 63 | 1012.7 |
| 20260508101803 | 55 | 234 | 6.0 | 14.0 | 0.00 | 0.00 | 0.00 | 63 | 1012.7 |
| 20260508101604 | 55 | 234 | 6.0 | 14.0 | 0.00 | 0.00 | 0.00 | 63 | 1012.7 |
| 20260508101404 | 55 | 228 | 6.0 | 14.0 | 0.00 | 0.00 | 0.00 | 64 | 1012.7 |
| 20260508101204 | 55 | 227 | 5.0 | 13.0 | 0.00 | 0.00 | 0.00 | 64 | 1012.6 |
| 20260508101003 | 55 | 222 | 5.0 | 13.0 | 0.00 | 0.00 | 0.00 | 63 | 1012.6 |
| 20260508100803 | 55 | 213 | 5.0 | 13.0 | 0.00 | 0.00 | 0.00 | 64 | 1012.6 |
| 20260508100604 | 55 | 206 | 5.0 | 13.0 | 0.00 | 0.00 | 0.00 | 65 | 1012.6 |
| 20260508100404 | 55 | 209 | 5.0 | 13.0 | 0.00 | 0.00 | 0.00 | 65 | 1012.5 |
| 20260508100203 | 55 | 200 | 4.0 | 12.0 | 0.00 | 0.00 | 0.00 | 65 | 1012.6 |
| 20260508100003 | 55 | 204 | 4.0 | 12.0 | 0.00 | 0.00 | 0.00 | 65 | 1012.6 |
| 20260508095804 | 55 | 206 | 4.0 | 12.0 | 0.00 | 0.00 | 0.00 | 65 | 1012.5 |
| 20260508095603 | 54 | 202 | 4.0 | 12.0 | 0.00 | 0.00 | 0.00 | 66 | 1012.5 |
| 20260508095404 | 54 | 199 | 4.0 | 12.0 | 0.00 | 0.00 | 0.00 | 67 | 1012.5 |
| 20260508095203 | 54 | 199 | 4.0 | 12.0 | 0.00 | 0.00 | 0.00 | 66 | 1012.4 |
| 20260508095004 | 54 | 197 | 4.0 | 12.0 | 0.00 | 0.00 | 0.00 | 66 | 1012.4 |
| 20260508094804 | 54 | 199 | 4.0 | 11.0 | 0.00 | 0.00 | 0.00 | 66 | 1012.4 |
| 20260508094604 | 54 | 203 | 4.0 | 13.0 | 0.00 | 0.00 | 0.00 | 67 | 1012.5 |
| 20260508094404 | 53 | 201 | 5.0 | 13.0 | 0.00 | 0.00 | 0.00 | 66 | 1012.5 |
| 20260508094203 | 53 | 201 | 5.0 | 13.0 | 0.00 | 0.00 | 0.00 | 66 | 1012.5 |
| 20260508094006 | 53 | 200 | 5.0 | 13.0 | 0.00 | 0.00 | 0.00 | 66 | 1012.4 |
| 20260508093803 | 53 | 200 | 5.0 | 13.0 | 0.00 | 0.00 | 0.00 | 66 | 1012.4 |
| 20260508093606 | 53 | 197 | 5.0 | 12.0 | 0.00 | 0.00 | 0.00 | 65 | 1012.5 |
| 20260508093404 | 53 | 200 | 5.0 | 12.0 | 0.00 | 0.00 | 0.00 | 67 | 1012.4 |
| 20260508093203 | 53 | 203 | 4.0 | 11.0 | 0.00 | 0.00 | 0.00 | 68 | 1012.5 |
| 20260508093003 | 53 | 206 | 4.0 | 12.0 | 0.00 | 0.00 | 0.00 | 67 | 1012.4 |
| 20260508092803 | 53 | 211 | 5.0 | 12.0 | 0.00 | 0.00 | 0.00 | 68 | 1012.4 |
| 20260508092603 | 53 | 212 | 5.0 | 12.0 | 0.00 | 0.00 | 0.00 | 68 | 1012.3 |
| 20260508092404 | 53 | 217 | 5.0 | 12.0 | 0.00 | 0.00 | 0.00 | 69 | 1012.3 |
| 20260508092203 | 53 | 215 | 5.0 | 12.0 | 0.00 | 0.00 | 0.00 | 68 | 1012.3 |
| 20260508092008 | 53 | 214 | 6.0 | 14.0 | 0.00 | 0.00 | 0.00 | 69 | 1012.3 |
| 20260508091803 | 53 | 214 | 5.0 | 14.0 | 0.00 | 0.00 | 0.00 | 69 | 1012.3 |
| 20260508091603 | 53 | 217 | 5.0 | 14.0 | 0.00 | 0.00 | 0.00 | 69 | 1012.2 |
| 20260508091404 | 53 | 217 | 5.0 | 14.0 | 0.00 | 0.00 | 0.00 | 70 | 1012.3 |
| 20260508091204 | 53 | 218 | 4.0 | 14.0 | 0.00 | 0.00 | 0.00 | 69 | 1012.2 |
| 20260508091004 | 53 | 221 | 4.0 | 14.0 | 0.00 | 0.00 | 0.00 | 69 | 1012.2 |
| 20260508090804 | 53 | 223 | 4.0 | 10.0 | 0.00 | 0.00 | 0.00 | 71 | 1012.2 |
| 20260508090603 | 53 | 224 | 5.0 | 11.0 | 0.00 | 0.00 | 0.00 | 70 | 1012.3 |
| 20260508090403 | 52 | 225 | 5.0 | 11.0 | 0.00 | 0.00 | 0.00 | 70 | 1012.3 |
| 20260508090203 | 52 | 227 | 6.0 | 11.0 | 0.00 | 0.00 | 0.00 | 70 | 1012.3 |
| 20260508090003 | 52 | 229 | 5.0 | 11.0 | 0.00 | 0.00 | 0.00 | 69 | 1012.2 |
| 20260508085807 | 52 | 224 | 5.0 | 11.0 | 0.00 | 0.00 | 0.00 | 69 | 1012.3 |
| 20260508085606 | 52 | 221 | 5.0 | 11.0 | 0.00 | 0.00 | 0.00 | 69 | 1012.3 |
| 20260508085403 | 52 | 217 | 4.0 | 11.0 | 0.00 | 0.00 | 0.00 | 70 | 1012.2 |
| 20260508085203 | 52 | 209 | 4.0 | 13.0 | 0.00 | 0.00 | 0.00 | 70 | 1012.3 |
| 20260508085006 | 52 | 205 | 4.0 | 13.0 | 0.00 | 0.00 | 0.00 | 71 | 1012.2 |
| 20260508084804 | 52 | 208 | 4.0 | 13.0 | 0.00 | 0.00 | 0.00 | 71 | 1012.3 |
| 20260508084604 | 52 | 208 | 4.0 | 13.0 | 0.00 | 0.00 | 0.00 | 71 | 1012.2 |
| 20260508084404 | 52 | 210 | 3.0 | 13.0 | 0.00 | 0.00 | 0.00 | 72 | 1012.2 |
| 20260508084204 | 52 | 211 | 3.0 | 8.0 | 0.00 | 0.00 | 0.00 | 72 | 1012.2 |
| 20260508084003 | 52 | 212 | 3.0 | 8.0 | 0.00 | 0.00 | 0.00 | 72 | 1012.2 |
| 20260508083803 | 52 | 219 | 3.0 | 10.0 | 0.00 | 0.00 | 0.00 | 72 | 1012.2 |
| 20260508083604 | 52 | 220 | 4.0 | 10.0 | 0.00 | 0.00 | 0.00 | 73 | 1012.2 |
| 20260508083403 | 52 | 215 | 4.0 | 10.0 | 0.00 | 0.00 | 0.00 | 72 | 1012.2 |
| 20260508083206 | 52 | 216 | 4.0 | 10.0 | 0.00 | 0.00 | 0.00 | 72 | 1012.2 |
| 20260508083003 | 52 | 217 | 4.0 | 10.0 | 0.00 | 0.00 | 0.00 | 72 | 1012.1 |
| 20260508082804 | 52 | 210 | 4.0 | 10.0 | 0.00 | 0.00 | 0.00 | 73 | 1012.1 |
| 20260508082606 | 52 | 208 | 3.0 | 10.0 | 0.00 | 0.00 | 0.00 | 73 | 1012.1 |
| 20260508082404 | 52 | 211 | 3.0 | 10.0 | 0.00 | 0.00 | 0.00 | 74 | 1012.0 |
| 20260508082203 | 52 | 216 | 4.0 | 8.0 | 0.00 | 0.00 | 0.00 | 74 | 1012.0 |
| 20260508082003 | 52 | 211 | 4.0 | 8.0 | 0.00 | 0.00 | 0.00 | 74 | 1012.0 |
| 20260508081804 | 52 | 214 | 3.0 | 8.0 | 0.00 | 0.00 | 0.00 | 74 | 1011.9 |
| 20260508081604 | 52 | 220 | 4.0 | 8.0 | 0.00 | 0.00 | 0.00 | 75 | 1012.0 |
| 20260508081404 | 52 | 219 | 4.0 | 8.0 | 0.00 | 0.00 | 0.00 | 75 | 1011.9 |
| 20260508081203 | 52 | 221 | 4.0 | 10.0 | 0.00 | 0.00 | 0.00 | 75 | 1011.9 |
| 20260508081003 | 52 | 222 | 4.0 | 10.0 | 0.00 | 0.00 | 0.00 | 75 | 1011.9 |
| 20260508080804 | 52 | 217 | 4.0 | 11.0 | 0.00 | 0.00 | 0.00 | 75 | 1011.9 |
| 20260508080606 | 52 | 211 | 4.0 | 11.0 | 0.00 | 0.00 | 0.00 | 75 | 1011.9 |
| 20260508080404 | 52 | 209 | 4.0 | 11.0 | 0.00 | 0.00 | 0.00 | 75 | 1011.8 |
| 20260508080203 | 52 | 201 | 4.0 | 11.0 | 0.00 | 0.00 | 0.00 | 75 | 1011.9 |
| 20260508080004 | 52 | 200 | 3.0 | 11.0 | 0.00 | 0.00 | 0.00 | 76 | 1011.8 |
| 20260508075803 | 51 | 199 | 4.0 | 8.0 | 0.00 | 0.00 | 0.00 | 76 | 1011.8 |
| 20260508075604 | 51 | 196 | 4.0 | 10.0 | 0.00 | 0.00 | 0.00 | 76 | 1011.8 |
| 20260508075404 | 51 | 193 | 4.0 | 10.0 | 0.00 | 0.00 | 0.00 | 77 | 1011.7 |
| 20260508075203 | 51 | 190 | 4.0 | 10.0 | 0.00 | 0.00 | 0.00 | 77 | 1011.8 |
| 20260508075004 | 51 | 189 | 4.0 | 10.0 | 0.00 | 0.00 | 0.00 | 77 | 1011.8 |
| 20260508074804 | 51 | 190 | 4.0 | 11.0 | 0.00 | 0.00 | 0.00 | 77 | 1011.7 |
| 20260508074603 | 51 | 190 | 3.0 | 11.0 | 0.00 | 0.00 | 0.00 | 78 | 1011.7 |
| 20260508074403 | 51 | 192 | 3.0 | 11.0 | 0.00 | 0.00 | 0.00 | 78 | 1011.6 |
| 20260508074204 | 51 | 192 | 3.0 | 11.0 | 0.00 | 0.00 | 0.00 | 78 | 1011.6 |
| 20260508074003 | 51 | 193 | 3.0 | 11.0 | 0.00 | 0.00 | 0.00 | 79 | 1011.6 |
| 20260508073803 | 51 | 194 | 3.0 | 6.0 | 0.00 | 0.00 | 0.00 | 79 | 1011.5 |
| 20260508073607 | 51 | 190 | 3.0 | 6.0 | 0.00 | 0.00 | 0.00 | 79 | 1011.5 |
| 20260508073403 | 51 | 181 | 3.0 | 7.0 | 0.00 | 0.00 | 0.00 | 79 | 1011.5 |
| 20260508073204 | 51 | 179 | 3.0 | 8.0 | 0.00 | 0.00 | 0.00 | 79 | 1011.5 |
| 20260508073008 | 51 | 173 | 3.0 | 8.0 | 0.00 | 0.00 | 0.00 | 80 | 1011.5 |
| 20260508072807 | 51 | 168 | 3.0 | 8.0 | 0.00 | 0.00 | 0.00 | 79 | 1011.5 |
| 20260508072604 | 51 | 172 | 3.0 | 8.0 | 0.00 | 0.00 | 0.00 | 79 | 1011.4 |
| 20260508072403 | 50 | 180 | 3.0 | 8.0 | 0.00 | 0.00 | 0.00 | 79 | 1011.4 |
| 20260508072203 | 50 | 183 | 3.0 | 7.0 | 0.00 | 0.00 | 0.00 | 79 | 1011.4 |
| 20260508072006 | 50 | 185 | 3.0 | 7.0 | 0.00 | 0.00 | 0.00 | 79 | 1011.3 |
| 20260508071803 | 50 | 188 | 3.0 | 7.0 | 0.00 | 0.00 | 0.00 | 79 | 1011.3 |
| 20260508071603 | 50 | 186 | 3.0 | 7.0 | 0.00 | 0.00 | 0.00 | 79 | 1011.2 |
| 20260508071404 | 50 | 185 | 3.0 | 7.0 | 0.00 | 0.00 | 0.00 | 80 | 1011.2 |
| 20260508071204 | 50 | 185 | 3.0 | 8.0 | 0.00 | 0.00 | 0.00 | 80 | 1011.2 |
| 20260508071003 | 50 | 187 | 3.0 | 8.0 | 0.00 | 0.00 | 0.00 | 80 | 1011.2 |
| 20260508070804 | 50 | 188 | 3.0 | 10.0 | 0.00 | 0.00 | 0.00 | 80 | 1011.2 |
| 20260508070604 | 50 | 191 | 4.0 | 10.0 | 0.00 | 0.00 | 0.00 | 80 | 1011.1 |
| 20260508070403 | 50 | 190 | 3.0 | 10.0 | 0.00 | 0.00 | 0.00 | 80 | 1011.1 |
| 20260508070203 | 50 | 188 | 4.0 | 10.0 | 0.00 | 0.00 | 0.00 | 80 | 1011.1 |
| 20260508070003 | 50 | 186 | 4.0 | 10.0 | 0.00 | 0.00 | 0.00 | 80 | 1011.1 |
| 20260508065804 | 50 | 185 | 3.0 | 10.0 | 0.00 | 0.00 | 0.00 | 80 | 1011.0 |
| 20260508065606 | 50 | 184 | 3.0 | 10.0 | 0.00 | 0.00 | 0.00 | 80 | 1011.0 |
| 20260508065403 | 50 | 187 | 3.0 | 10.0 | 0.00 | 0.00 | 0.00 | 80 | 1011.0 |
| 20260508065204 | 50 | 191 | 3.0 | 10.0 | 0.00 | 0.00 | 0.00 | 80 | 1010.9 |
| 20260508065003 | 50 | 195 | 3.0 | 10.0 | 0.00 | 0.00 | 0.00 | 80 | 1010.9 |
| 20260508064803 | 50 | 194 | 3.0 | 10.0 | 0.00 | 0.00 | 0.00 | 80 | 1010.9 |
| 20260508064603 | 50 | 194 | 3.0 | 10.0 | 0.00 | 0.00 | 0.00 | 80 | 1010.9 |
| 20260508064403 | 50 | 194 | 4.0 | 10.0 | 0.00 | 0.00 | 0.00 | 80 | 1010.8 |
| 20260508064204 | 50 | 194 | 3.0 | 8.0 | 0.00 | 0.00 | 0.00 | 80 | 1010.8 |
| 20260508064004 | 50 | 196 | 3.0 | 8.0 | 0.00 | 0.00 | 0.00 | 80 | 1010.8 |
| 20260508063803 | 50 | 200 | 3.0 | 8.0 | 0.00 | 0.00 | 0.00 | 80 | 1010.7 |
| 20260508063603 | 50 | 202 | 3.0 | 7.0 | 0.00 | 0.00 | 0.00 | 80 | 1010.8 |
| 20260508063404 | 50 | 204 | 3.0 | 7.0 | 0.00 | 0.00 | 0.00 | 80 | 1010.8 |
| 20260508063203 | 50 | 203 | 3.0 | 6.0 | 0.00 | 0.00 | 0.00 | 80 | 1010.7 |
| 20260508063003 | 50 | 203 | 3.0 | 6.0 | 0.00 | 0.00 | 0.00 | 80 | 1010.9 |
| 20260508062806 | 50 | 202 | 3.0 | 6.0 | 0.00 | 0.00 | 0.00 | 80 | 1010.7 |
| 20260508062605 | 50 | 205 | 3.0 | 6.0 | 0.00 | 0.00 | 0.00 | 80 | 1010.7 |
| 20260508062404 | 50 | 204 | 3.0 | 7.0 | 0.00 | 0.00 | 0.00 | 80 | 1010.7 |
| 20260508062204 | 50 | 203 | 3.0 | 12.0 | 0.00 | 0.00 | 0.00 | 80 | 1010.7 |
| 20260508062003 | 50 | 199 | 4.0 | 12.0 | 0.00 | 0.00 | 0.00 | 80 | 1010.7 |
| 20260508061803 | 50 | 198 | 4.0 | 12.0 | 0.00 | 0.00 | 0.00 | 80 | 1010.6 |
| 20260508061604 | 50 | 196 | 4.0 | 12.0 | 0.00 | 0.00 | 0.00 | 80 | 1010.6 |
| 20260508061404 | 50 | 195 | 4.0 | 12.0 | 0.00 | 0.00 | 0.00 | 81 | 1010.5 |
| 20260508061204 | 50 | 194 | 4.0 | 8.0 | 0.00 | 0.00 | 0.00 | 80 | 1010.5 |
| 20260508061005 | 49 | 197 | 4.0 | 8.0 | 0.00 | 0.00 | 0.00 | 81 | 1010.4 |
| 20260508060804 | 49 | 196 | 4.0 | 8.0 | 0.00 | 0.00 | 0.00 | 81 | 1010.3 |
| 20260508060604 | 49 | 195 | 4.0 | 10.0 | 0.00 | 0.00 | 0.00 | 81 | 1010.4 |
| 20260508060404 | 49 | 195 | 4.0 | 10.0 | 0.00 | 0.00 | 0.00 | 81 | 1010.4 |
| 20260508060204 | 49 | 195 | 4.0 | 10.0 | 0.00 | 0.00 | 0.00 | 81 | 1010.3 |
| 20260508060004 | 49 | 197 | 5.0 | 12.0 | 0.00 | 0.00 | 0.00 | 81 | 1010.3 |
| 20260508055807 | 49 | 198 | 5.0 | 12.0 | 0.00 | 0.00 | 0.00 | 81 | 1010.3 |
| 20260508055606 | 49 | 199 | 5.0 | 12.0 | 0.00 | 0.00 | 0.00 | 81 | 1010.3 |
| 20260508055403 | 49 | 199 | 5.0 | 12.0 | 0.00 | 0.00 | 0.00 | 81 | 1010.2 |
| 20260508055204 | 49 | 197 | 5.0 | 13.0 | 0.00 | 0.00 | 0.00 | 81 | 1010.4 |
| 20260508055003 | 49 | 193 | 4.0 | 13.0 | 0.00 | 0.00 | 0.00 | 81 | 1010.3 |
| 20260508054803 | 49 | 193 | 4.0 | 13.0 | 0.00 | 0.00 | 0.00 | 81 | 1010.3 |
| 20260508054604 | 49 | 190 | 5.0 | 13.0 | 0.00 | 0.00 | 0.00 | 82 | 1010.3 |
| 20260508054404 | 49 | 187 | 4.0 | 13.0 | 0.00 | 0.00 | 0.00 | 82 | 1010.2 |
| 20260508054204 | 49 | 189 | 4.0 | 11.0 | 0.00 | 0.00 | 0.00 | 82 | 1010.3 |
| 20260508054004 | 48 | 187 | 4.0 | 11.0 | 0.00 | 0.00 | 0.00 | 82 | 1010.3 |
| 20260508053804 | 48 | 186 | 4.0 | 11.0 | 0.00 | 0.00 | 0.00 | 82 | 1010.2 |
| 20260508053603 | 48 | 184 | 4.0 | 10.0 | 0.00 | 0.00 | 0.00 | 83 | 1010.2 |
| 20260508053404 | 48 | 181 | 4.0 | 12.0 | 0.00 | 0.00 | 0.00 | 82 | 1010.1 |
| 20260508053203 | 48 | 181 | 4.0 | 12.0 | 0.00 | 0.00 | 0.00 | 82 | 1010.0 |
| 20260508053003 | 48 | 183 | 4.0 | 12.0 | 0.00 | 0.00 | 0.00 | 82 | 1009.9 |
| 20260508052803 | 48 | 183 | 4.0 | 12.0 | 0.00 | 0.00 | 0.00 | 82 | 1009.9 |
| 20260508052604 | 48 | 188 | 3.0 | 12.0 | 0.00 | 0.00 | 0.00 | 82 | 1009.9 |
| 20260508052403 | 48 | 195 | 3.0 | 11.0 | 0.00 | 0.00 | 0.00 | 82 | 1009.9 |
| 20260508052203 | 48 | 194 | 3.0 | 7.0 | 0.00 | 0.00 | 0.00 | 82 | 1009.8 |
| 20260508052003 | 48 | 193 | 3.0 | 7.0 | 0.00 | 0.00 | 0.00 | 82 | 1009.8 |
| 20260508051803 | 48 | 193 | 3.0 | 7.0 | 0.00 | 0.00 | 0.00 | 82 | 1009.8 |
| 20260508051604 | 48 | 192 | 3.0 | 8.0 | 0.00 | 0.00 | 0.00 | 82 | 1009.8 |
| 20260508051403 | 48 | 192 | 3.0 | 8.0 | 0.00 | 0.00 | 0.00 | 82 | 1009.8 |
| 20260508051203 | 48 | 191 | 3.0 | 8.0 | 0.00 | 0.00 | 0.00 | 82 | 1009.7 |
| 20260508051006 | 48 | 192 | 2.0 | 8.0 | 0.00 | 0.00 | 0.00 | 82 | 1009.7 |
| 20260508050808 | 48 | 194 | 3.0 | 10.0 | 0.00 | 0.00 | 0.00 | 82 | 1009.7 |
| 20260508050604 | 48 | 196 | 3.0 | 10.0 | 0.00 | 0.00 | 0.00 | 82 | 1009.7 |
| 20260508050403 | 48 | 195 | 3.0 | 10.0 | 0.00 | 0.00 | 0.00 | 82 | 1009.6 |
| 20260508050203 | 48 | 194 | 4.0 | 10.0 | 0.00 | 0.00 | 0.00 | 82 | 1009.6 |
| 20260508050003 | 48 | 192 | 4.0 | 10.0 | 0.00 | 0.00 | 0.00 | 82 | 1009.6 |
| 20260508045804 | 48 | 191 | 4.0 | 10.0 | 0.00 | 0.00 | 0.00 | 82 | 1009.6 |
| 20260508045603 | 48 | 188 | 4.0 | 11.0 | 0.00 | 0.00 | 0.00 | 82 | 1009.6 |
| 20260508045405 | 48 | 188 | 4.0 | 11.0 | 0.00 | 0.00 | 0.00 | 82 | 1009.6 |
| 20260508045203 | 48 | 189 | 4.0 | 11.0 | 0.00 | 0.00 | 0.00 | 83 | 1009.6 |
| 20260508045003 | 47 | 190 | 4.0 | 11.0 | 0.00 | 0.00 | 0.00 | 83 | 1009.6 |
| 20260508044804 | 47 | 188 | 4.0 | 11.0 | 0.00 | 0.00 | 0.00 | 82 | 1009.5 |
| 20260508044606 | 47 | 192 | 4.0 | 10.0 | 0.00 | 0.00 | 0.00 | 82 | 1009.5 |
| 20260508044404 | 47 | 192 | 4.0 | 10.0 | 0.00 | 0.00 | 0.00 | 83 | 1009.5 |
| 20260508044203 | 47 | 191 | 4.0 | 8.0 | 0.00 | 0.00 | 0.00 | 82 | 1009.4 |
| 20260508044003 | 47 | 193 | 4.0 | 10.0 | 0.00 | 0.00 | 0.00 | 82 | 1009.4 |
| 20260508043805 | 47 | 193 | 4.0 | 10.0 | 0.00 | 0.00 | 0.00 | 82 | 1009.5 |
| 20260508043603 | 47 | 194 | 4.0 | 10.0 | 0.00 | 0.00 | 0.00 | 82 | 1009.4 |
| 20260508043403 | 47 | 193 | 5.0 | 11.0 | 0.00 | 0.00 | 0.00 | 83 | 1009.4 |
| 20260508043204 | 47 | 194 | 5.0 | 11.0 | 0.00 | 0.00 | 0.00 | 82 | 1009.4 |
| 20260508043003 | 47 | 192 | 5.0 | 11.0 | 0.00 | 0.00 | 0.00 | 83 | 1009.5 |
| 20260508042804 | 47 | 192 | 5.0 | 11.0 | 0.00 | 0.00 | 0.00 | 82 | 1009.5 |
| 20260508042604 | 47 | 190 | 5.0 | 11.0 | 0.00 | 0.00 | 0.00 | 83 | 1009.5 |
| 20260508042403 | 47 | 191 | 5.0 | 11.0 | 0.00 | 0.00 | 0.00 | 83 | 1009.5 |
| 20260508042203 | 47 | 191 | 5.0 | 11.0 | 0.00 | 0.00 | 0.00 | 83 | 1009.6 |
| 20260508042004 | 47 | 192 | 4.0 | 10.0 | 0.00 | 0.00 | 0.00 | 83 | 1009.5 |
| 20260508041804 | 47 | 192 | 4.0 | 10.0 | 0.00 | 0.00 | 0.00 | 83 | 1009.6 |
| 20260508041604 | 47 | 193 | 4.0 | 10.0 | 0.00 | 0.00 | 0.00 | 83 | 1009.5 |
| 20260508041403 | 47 | 193 | 4.0 | 10.0 | 0.00 | 0.00 | 0.00 | 83 | 1009.5 |
| 20260508041204 | 47 | 189 | 3.0 | 8.0 | 0.00 | 0.00 | 0.00 | 83 | 1009.5 |
| 20260508041003 | 47 | 188 | 3.0 | 8.0 | 0.00 | 0.00 | 0.00 | 83 | 1009.5 |
| 20260508040803 | 47 | 181 | 3.0 | 8.0 | 0.00 | 0.00 | 0.00 | 83 | 1009.4 |
| 20260508040603 | 47 | 174 | 3.0 | 7.0 | 0.00 | 0.00 | 0.00 | 83 | 1009.4 |
| 20260508040404 | 47 | 166 | 3.0 | 7.0 | 0.00 | 0.00 | 0.00 | 83 | 1009.4 |
| 20260508040203 | 47 | 167 | 3.0 | 7.0 | 0.00 | 0.00 | 0.00 | 83 | 1009.4 |
| 20260508040003 | 47 | 160 | 3.0 | 6.0 | 0.00 | 0.00 | 0.00 | 83 | 1009.5 |
| 20260508035805 | 47 | 159 | 3.0 | 6.0 | 0.00 | 0.00 | 0.00 | 83 | 1009.4 |
| 20260508035603 | 47 | 163 | 3.0 | 6.0 | 0.00 | 0.00 | 0.00 | 83 | 1009.5 |
| 20260508035404 | 47 | 163 | 3.0 | 7.0 | 0.00 | 0.00 | 0.00 | 83 | 1009.4 |
| 20260508035203 | 47 | 163 | 3.0 | 7.0 | 0.00 | 0.00 | 0.00 | 83 | 1009.5 |
| 20260508035003 | 47 | 162 | 3.0 | 7.0 | 0.00 | 0.00 | 0.00 | 83 | 1009.5 |
| 20260508034803 | 47 | 162 | 3.0 | 7.0 | 0.00 | 0.00 | 0.00 | 83 | 1009.5 |
| 20260508034603 | 47 | 155 | 3.0 | 7.0 | 0.00 | 0.00 | 0.00 | 83 | 1009.5 |
| 20260508034404 | 47 | 152 | 3.0 | 10.0 | 0.00 | 0.00 | 0.00 | 83 | 1009.5 |
| 20260508034203 | 47 | 148 | 3.0 | 10.0 | 0.00 | 0.00 | 0.00 | 83 | 1009.5 |
| 20260508034003 | 47 | 149 | 3.0 | 10.0 | 0.00 | 0.00 | 0.00 | 83 | 1009.5 |
| 20260508033803 | 47 | 152 | 3.0 | 10.0 | 0.00 | 0.00 | 0.00 | 83 | 1009.5 |
| 20260508033603 | 47 | 152 | 3.0 | 10.0 | 0.00 | 0.00 | 0.00 | 83 | 1009.4 |
| 20260508033403 | 47 | 154 | 3.0 | 10.0 | 0.00 | 0.00 | 0.00 | 83 | 1009.4 |
| 20260508033204 | 47 | 156 | 3.0 | 10.0 | 0.00 | 0.00 | 0.00 | 83 | 1009.5 |
| 20260508033003 | 47 | 157 | 3.0 | 10.0 | 0.00 | 0.00 | 0.00 | 83 | 1009.4 |
| 20260508032804 | 47 | 158 | 4.0 | 10.0 | 0.00 | 0.00 | 0.00 | 83 | 1009.5 |
| 20260508032604 | 47 | 158 | 4.0 | 10.0 | 0.00 | 0.00 | 0.00 | 83 | 1009.4 |
| 20260508032404 | 47 | 161 | 4.0 | 8.0 | 0.00 | 0.00 | 0.00 | 83 | 1009.3 |
| 20260508032204 | 47 | 163 | 4.0 | 8.0 | 0.00 | 0.00 | 0.00 | 83 | 1009.3 |
| 20260508032003 | 47 | 167 | 3.0 | 8.0 | 0.00 | 0.00 | 0.00 | 83 | 1009.4 |
| 20260508031803 | 47 | 165 | 3.0 | 7.0 | 0.00 | 0.00 | 0.00 | 83 | 1009.4 |
| 20260508031604 | 47 | 169 | 2.0 | 7.0 | 0.00 | 0.00 | 0.00 | 83 | 1009.4 |
| 20260508031403 | 47 | 167 | 2.0 | 7.0 | 0.00 | 0.00 | 0.00 | 83 | 1009.4 |
| 20260508031203 | 47 | 159 | 2.0 | 7.0 | 0.00 | 0.00 | 0.00 | 83 | 1009.5 |
| 20260508031003 | 47 | 151 | 3.0 | 7.0 | 0.00 | 0.00 | 0.00 | 83 | 1009.5 |
| 20260508030804 | 47 | 150 | 3.0 | 6.0 | 0.00 | 0.00 | 0.00 | 83 | 1009.5 |
| 20260508030603 | 47 | 153 | 4.0 | 7.0 | 0.00 | 0.00 | 0.00 | 83 | 1009.5 |
| 20260508030403 | 47 | 154 | 4.0 | 7.0 | 0.00 | 0.00 | 0.00 | 83 | 1009.5 |
| 20260508030203 | 47 | 154 | 4.0 | 10.0 | 0.00 | 0.00 | 0.00 | 83 | 1009.5 |
| 20260508030004 | 47 | 156 | 4.0 | 10.0 | 0.00 | 0.00 | 0.00 | 83 | 1009.5 |
| 20260508025804 | 47 | 158 | 4.0 | 10.0 | 0.00 | 0.00 | 0.00 | 83 | 1009.6 |
| 20260508025603 | 47 | 155 | 3.0 | 10.0 | 0.00 | 0.00 | 0.00 | 83 | 1009.5 |
| 20260508025403 | 47 | 152 | 3.0 | 10.0 | 0.00 | 0.00 | 0.00 | 83 | 1009.6 |
| 20260508025203 | 47 | 152 | 3.0 | 8.0 | 0.00 | 0.00 | 0.00 | 83 | 1009.6 |
| 20260508025004 | 47 | 151 | 4.0 | 10.0 | 0.00 | 0.00 | 0.00 | 83 | 1009.6 |
| 20260508024803 | 47 | 149 | 4.0 | 10.0 | 0.00 | 0.00 | 0.00 | 83 | 1009.6 |
| 20260508024603 | 47 | 149 | 4.0 | 10.0 | 0.00 | 0.00 | 0.00 | 83 | 1009.6 |
| 20260508024404 | 47 | 150 | 4.0 | 10.0 | 0.00 | 0.00 | 0.00 | 82 | 1009.6 |
| 20260508024203 | 47 | 152 | 5.0 | 10.0 | 0.00 | 0.00 | 0.00 | 82 | 1009.5 |
| 20260508024004 | 47 | 158 | 4.0 | 10.0 | 0.00 | 0.00 | 0.00 | 83 | 1009.6 |
| 20260508023803 | 47 | 159 | 4.0 | 10.0 | 0.00 | 0.00 | 0.00 | 82 | 1009.6 |
| 20260508023604 | 47 | 161 | 4.0 | 11.0 | 0.00 | 0.00 | 0.00 | 83 | 1009.6 |
| 20260508023403 | 47 | 158 | 4.0 | 11.0 | 0.00 | 0.00 | 0.00 | 83 | 1009.5 |
| 20260508023203 | 47 | 156 | 4.0 | 11.0 | 0.00 | 0.00 | 0.00 | 83 | 1009.6 |
| 20260508023004 | 47 | 151 | 4.0 | 13.0 | 0.00 | 0.00 | 0.00 | 83 | 1009.6 |
| 20260508022804 | 47 | 151 | 5.0 | 13.0 | 0.00 | 0.00 | 0.00 | 83 | 1009.6 |
| 20260508022604 | 47 | 153 | 5.0 | 13.0 | 0.00 | 0.00 | 0.00 | 83 | 1009.6 |
| 20260508022403 | 47 | 157 | 5.0 | 13.0 | 0.00 | 0.00 | 0.00 | 83 | 1009.6 |
| 20260508022204 | 47 | 159 | 5.0 | 13.0 | 0.00 | 0.00 | 0.00 | 83 | 1009.6 |
| 20260508022003 | 47 | 161 | 5.0 | 13.0 | 0.00 | 0.00 | 0.00 | 83 | 1009.6 |
| 20260508021803 | 47 | 161 | 5.0 | 13.0 | 0.00 | 0.00 | 0.00 | 83 | 1009.7 |
| 20260508021604 | 47 | 159 | 5.0 | 13.0 | 0.00 | 0.00 | 0.00 | 84 | 1009.6 |
| 20260508021403 | 47 | 157 | 5.0 | 13.0 | 0.00 | 0.00 | 0.00 | 84 | 1009.5 |
| 20260508021203 | 47 | 160 | 5.0 | 12.0 | 0.00 | 0.00 | 0.00 | 84 | 1009.5 |
| 20260508021004 | 47 | 163 | 5.0 | 12.0 | 0.00 | 0.00 | 0.00 | 84 | 1009.5 |
| 20260508020804 | 47 | 166 | 5.0 | 12.0 | 0.00 | 0.00 | 0.00 | 84 | 1009.5 |
| 20260508020604 | 47 | 169 | 5.0 | 12.0 | 0.00 | 0.00 | 0.00 | 84 | 1009.5 |
| 20260508020404 | 47 | 172 | 5.0 | 12.0 | 0.00 | 0.00 | 0.00 | 84 | 1009.6 |
| 20260508020204 | 47 | 173 | 5.0 | 12.0 | 0.00 | 0.00 | 0.00 | 84 | 1009.6 |
| 20260508020004 | 47 | 173 | 5.0 | 12.0 | 0.00 | 0.00 | 0.00 | 84 | 1009.5 |
| 20260508015803 | 47 | 175 | 5.0 | 11.0 | 0.00 | 0.00 | 0.00 | 84 | 1009.5 |
| 20260508015603 | 47 | 173 | 5.0 | 11.0 | 0.00 | 0.00 | 0.00 | 84 | 1009.5 |
| 20260508015403 | 47 | 172 | 5.0 | 11.0 | 0.00 | 0.00 | 0.00 | 84 | 1009.5 |
| 20260508015203 | 47 | 172 | 5.0 | 11.0 | 0.00 | 0.00 | 0.00 | 84 | 1009.5 |
| 20260508015003 | 47 | 171 | 5.0 | 11.0 | 0.00 | 0.00 | 0.00 | 84 | 1009.4 |
| 20260508014804 | 46 | 171 | 5.0 | 12.0 | 0.00 | 0.00 | 0.00 | 84 | 1009.4 |
| 20260508014603 | 46 | 175 | 5.0 | 13.0 | 0.00 | 0.00 | 0.00 | 84 | 1009.3 |
| 20260508014403 | 46 | 176 | 5.0 | 13.0 | 0.00 | 0.00 | 0.00 | 84 | 1009.4 |
| 20260508014204 | 46 | 177 | 5.0 | 13.0 | 0.00 | 0.00 | 0.00 | 84 | 1009.4 |
| 20260508014004 | 46 | 176 | 5.0 | 13.0 | 0.00 | 0.00 | 0.00 | 84 | 1009.4 |
| 20260508013803 | 46 | 173 | 5.0 | 13.0 | 0.00 | 0.00 | 0.00 | 84 | 1009.5 |
| 20260508013603 | 46 | 170 | 5.0 | 12.0 | 0.00 | 0.00 | 0.00 | 84 | 1009.5 |
| 20260508013404 | 47 | 170 | 6.0 | 12.0 | 0.00 | 0.00 | 0.00 | 84 | 1009.5 |
| 20260508013203 | 47 | 166 | 6.0 | 12.0 | 0.00 | 0.00 | 0.00 | 84 | 1009.4 |
| 20260508013003 | 47 | 168 | 5.0 | 12.0 | 0.00 | 0.00 | 0.00 | 84 | 1009.4 |
| 20260508012804 | 47 | 170 | 6.0 | 12.0 | 0.00 | 0.00 | 0.00 | 84 | 1009.4 |
| 20260508012603 | 47 | 172 | 6.0 | 16.0 | 0.00 | 0.00 | 0.00 | 84 | 1009.4 |
| 20260508012404 | 47 | 171 | 6.0 | 16.0 | 0.00 | 0.00 | 0.00 | 83 | 1009.4 |
| 20260508012203 | 47 | 174 | 6.0 | 16.0 | 0.00 | 0.00 | 0.00 | 83 | 1009.3 |
| 20260508012003 | 47 | 172 | 6.0 | 16.0 | 0.00 | 0.00 | 0.00 | 83 | 1009.4 |
| 20260508011804 | 47 | 171 | 6.0 | 16.0 | 0.00 | 0.00 | 0.00 | 84 | 1009.4 |
| 20260508011605 | 47 | 168 | 6.0 | 13.0 | 0.00 | 0.00 | 0.00 | 83 | 1009.3 |
| 20260508011403 | 47 | 169 | 6.0 | 12.0 | 0.00 | 0.00 | 0.00 | 83 | 1009.4 |
| 20260508011203 | 47 | 168 | 6.0 | 12.0 | 0.00 | 0.00 | 0.00 | 83 | 1009.4 |
| 20260508011004 | 47 | 167 | 6.0 | 17.0 | 0.00 | 0.00 | 0.00 | 83 | 1009.4 |
| 20260508010803 | 47 | 167 | 6.0 | 17.0 | 0.00 | 0.00 | 0.00 | 83 | 1009.3 |
| 20260508010604 | 47 | 166 | 7.0 | 17.0 | 0.00 | 0.00 | 0.00 | 83 | 1009.2 |
| 20260508010403 | 47 | 166 | 7.0 | 17.0 | 0.00 | 0.00 | 0.00 | 83 | 1009.2 |
| 20260508010204 | 47 | 168 | 7.0 | 17.0 | 0.00 | 0.00 | 0.00 | 83 | 1009.2 |
| 20260508010005 | 47 | 171 | 7.0 | 17.0 | 0.00 | 0.00 | 0.00 | 83 | 1009.3 |
| 20260508005803 | 47 | 172 | 7.0 | 14.0 | 0.00 | 0.00 | 0.00 | 83 | 1009.4 |
| 20260508005603 | 47 | 175 | 6.0 | 14.0 | 0.00 | 0.00 | 0.00 | 83 | 1009.3 |
| 20260508005403 | 47 | 178 | 6.0 | 14.0 | 0.00 | 0.00 | 0.00 | 83 | 1009.4 |
| 20260508005204 | 47 | 180 | 6.0 | 14.0 | 0.00 | 0.00 | 0.00 | 83 | 1009.4 |
| 20260508005003 | 47 | 179 | 6.0 | 12.0 | 0.00 | 0.00 | 0.00 | 83 | 1009.5 |
| 20260508004803 | 47 | 178 | 6.0 | 12.0 | 0.00 | 0.00 | 0.00 | 83 | 1009.4 |
| 20260508004604 | 47 | 177 | 6.0 | 12.0 | 0.00 | 0.00 | 0.00 | 82 | 1009.4 |
| 20260508004403 | 47 | 173 | 5.0 | 12.0 | 0.00 | 0.00 | 0.00 | 82 | 1009.4 |
| 20260508004204 | 47 | 169 | 5.0 | 11.0 | 0.00 | 0.00 | 0.00 | 82 | 1009.4 |
| 20260508004003 | 48 | 168 | 5.0 | 11.0 | 0.00 | 0.00 | 0.00 | 82 | 1009.3 |
| 20260508003804 | 48 | 170 | 5.0 | 16.0 | 0.00 | 0.00 | 0.00 | 82 | 1009.3 |
| 20260508003603 | 48 | 172 | 5.0 | 16.0 | 0.00 | 0.00 | 0.00 | 82 | 1009.4 |
| 20260508003403 | 48 | 178 | 5.0 | 16.0 | 0.00 | 0.00 | 0.00 | 82 | 1009.3 |
| 20260508003204 | 48 | 179 | 5.0 | 16.0 | 0.00 | 0.00 | 0.00 | 82 | 1009.4 |
| 20260508003005 | 48 | 181 | 5.0 | 16.0 | 0.00 | 0.00 | 0.00 | 82 | 1009.4 |
| 20260508002804 | 48 | 176 | 5.0 | 13.0 | 0.00 | 0.00 | 0.00 | 82 | 1009.4 |
| 20260508002603 | 48 | 178 | 5.0 | 13.0 | 0.00 | 0.00 | 0.00 | 82 | 1009.5 |
| 20260508002403 | 48 | 178 | 6.0 | 13.0 | 0.00 | 0.00 | 0.00 | 82 | 1009.5 |
| 20260508002203 | 48 | 181 | 6.0 | 12.0 | 0.00 | 0.00 | 0.00 | 82 | 1009.5 |
| 20260508002005 | 48 | 182 | 6.0 | 12.0 | 0.00 | 0.00 | 0.00 | 82 | 1009.5 |
| 20260508001803 | 48 | 187 | 5.0 | 12.0 | 0.00 | 0.00 | 0.00 | 81 | 1009.6 |
| 20260508001603 | 48 | 187 | 5.0 | 12.0 | 0.00 | 0.00 | 0.00 | 82 | 1009.7 |
| 20260508001405 | 48 | 188 | 5.0 | 12.0 | 0.00 | 0.00 | 0.00 | 82 | 1009.6 |
| 20260508001204 | 48 | 188 | 5.0 | 13.0 | 0.00 | 0.00 | 0.00 | 82 | 1009.7 |
| 20260508001004 | 48 | 189 | 5.0 | 13.0 | 0.00 | 0.00 | 0.00 | 82 | 1009.6 |
| 20260508000803 | 48 | 189 | 5.0 | 13.0 | 0.00 | 0.00 | 0.00 | 82 | 1009.6 |
| 20260508000604 | 48 | 190 | 5.0 | 13.0 | 0.00 | 0.00 | 0.00 | 82 | 1009.5 |
| 20260508000404 | 48 | 190 | 6.0 | 13.0 | 0.00 | 0.00 | 0.00 | 82 | 1009.7 |
| 20260508000204 | 48 | 188 | 6.0 | 12.0 | 0.00 | 0.00 | 0.00 | 82 | 1009.7 |
| 20260508000003 | 48 | 184 | 6.0 | 12.0 | 0.00 | 0.00 | 0.00 | 82 | 1009.6 |
| 20260507235803 | 48 | 178 | 6.0 | 13.0 | 0.00 | 0.00 | 0.00 | 83 | 1009.6 |
| 20260507235605 | 48 | 171 | 6.0 | 13.0 | 0.00 | 0.00 | 0.00 | 83 | 1009.5 |
| 20260507235405 | 47 | 166 | 5.0 | 13.0 | 0.00 | 0.00 | 0.00 | 83 | 1009.5 |
| 20260507235203 | 47 | 165 | 5.0 | 13.0 | 0.00 | 0.00 | 0.00 | 84 | 1009.5 |
| 20260507235003 | 47 | 165 | 4.0 | 13.0 | 0.00 | 0.00 | 0.00 | 84 | 1009.5 |
| 20260507234803 | 47 | 170 | 4.0 | 13.0 | 0.00 | 0.00 | 0.00 | 83 | 1009.5 |
| 20260507234603 | 47 | 173 | 4.0 | 13.0 | 0.00 | 0.00 | 0.00 | 84 | 1009.5 |
| 20260507234403 | 47 | 170 | 4.0 | 13.0 | 0.00 | 0.00 | 0.00 | 84 | 1009.5 |
| 20260507234203 | 47 | 166 | 4.0 | 13.0 | 0.00 | 0.00 | 0.00 | 84 | 1009.4 |
| 20260507234005 | 47 | 162 | 4.0 | 10.0 | 0.00 | 0.00 | 0.00 | 84 | 1009.6 |
| 20260507233804 | 47 | 158 | 4.0 | 8.0 | 0.00 | 0.00 | 0.00 | 84 | 1009.5 |
| 20260507233603 | 46 | 151 | 4.0 | 10.0 | 0.00 | 0.00 | 0.00 | 84 | 1009.6 |
| 20260507233403 | 46 | 149 | 3.0 | 10.0 | 0.00 | 0.00 | 0.00 | 83 | 1009.6 |
| 20260507233204 | 46 | 149 | 3.0 | 10.0 | 0.00 | 0.00 | 0.00 | 83 | 1009.5 |
| 20260507233005 | 46 | 152 | 3.0 | 10.0 | 0.00 | 0.00 | 0.00 | 83 | 1009.6 |
| 20260507232803 | 46 | 150 | 2.0 | 10.0 | 0.00 | 0.00 | 0.00 | 83 | 1009.6 |
| 20260507232603 | 46 | 159 | 2.0 | 6.0 | 0.00 | 0.00 | 0.00 | 82 | 1009.5 |
| 20260507232403 | 47 | 163 | 2.0 | 6.0 | 0.00 | 0.00 | 0.00 | 82 | 1009.6 |
| 20260507232204 | 47 | 172 | 1.0 | 6.0 | 0.00 | 0.00 | 0.00 | 82 | 1009.6 |
| 20260507232004 | 47 | 171 | 2.0 | 7.0 | 0.00 | 0.00 | 0.00 | 82 | 1009.7 |
| 20260507231804 | 47 | 173 | 2.0 | 7.0 | 0.00 | 0.00 | 0.00 | 82 | 1009.7 |
| 20260507231603 | 47 | 173 | 2.0 | 7.0 | 0.00 | 0.00 | 0.00 | 82 | 1009.7 |
| 20260507231403 | 47 | 173 | 2.0 | 7.0 | 0.00 | 0.00 | 0.00 | 82 | 1009.7 |
| 20260507231203 | 47 | 167 | 2.0 | 7.0 | 0.00 | 0.00 | 0.00 | 82 | 1009.8 |
| 20260507231004 | 47 | 169 | 2.0 | 6.0 | 0.00 | 0.00 | 0.00 | 82 | 1009.8 |
| 20260507230804 | 48 | 171 | 2.0 | 6.0 | 0.00 | 0.00 | 0.00 | 82 | 1009.8 |
| 20260507230605 | 48 | 174 | 2.0 | 10.0 | 0.00 | 0.00 | 0.00 | 82 | 1009.7 |
| 20260507230404 | 48 | 183 | 3.0 | 10.0 | 0.00 | 0.00 | 0.00 | 82 | 1009.7 |
| 20260507230203 | 48 | 194 | 3.0 | 10.0 | 0.00 | 0.00 | 0.00 | 82 | 1009.7 |
| 20260507230004 | 48 | 197 | 3.0 | 10.0 | 0.00 | 0.00 | 0.00 | 83 | 1009.8 |
| 20260507225803 | 48 | 199 | 3.0 | 10.0 | 0.00 | 0.00 | 0.00 | 83 | 1009.7 |
| 20260507225603 | 47 | 203 | 2.0 | 8.0 | 0.00 | 0.00 | 0.00 | 83 | 1009.8 |
| 20260507225403 | 47 | 199 | 3.0 | 11.0 | 0.00 | 0.00 | 0.00 | 83 | 1009.7 |
| 20260507225203 | 47 | 185 | 3.0 | 11.0 | 0.00 | 0.00 | 0.00 | 84 | 1009.7 |
| 20260507225004 | 47 | 174 | 3.0 | 11.0 | 0.00 | 0.00 | 0.00 | 84 | 1009.7 |
| 20260507224803 | 47 | 170 | 3.0 | 11.0 | 0.00 | 0.00 | 0.00 | 84 | 1009.7 |
| 20260507224603 | 47 | 169 | 4.0 | 11.0 | 0.00 | 0.00 | 0.00 | 84 | 1009.6 |
| 20260507224405 | 47 | 161 | 4.0 | 8.0 | 0.00 | 0.00 | 0.00 | 84 | 1009.6 |
| 20260507224203 | 47 | 162 | 4.0 | 8.0 | 0.00 | 0.00 | 0.00 | 84 | 1009.6 |
| 20260507224005 | 47 | 168 | 3.0 | 8.0 | 0.00 | 0.00 | 0.00 | 84 | 1009.5 |
| 20260507223803 | 46 | 167 | 4.0 | 8.0 | 0.00 | 0.00 | 0.00 | 84 | 1009.6 |
| 20260507223603 | 46 | 162 | 3.0 | 8.0 | 0.00 | 0.00 | 0.00 | 84 | 1009.5 |
| 20260507223403 | 46 | 161 | 3.0 | 8.0 | 0.00 | 0.00 | 0.00 | 84 | 1009.5 |
| 20260507223203 | 47 | 160 | 3.0 | 8.0 | 0.00 | 0.00 | 0.00 | 84 | 1009.6 |
| 20260507223004 | 47 | 161 | 3.0 | 7.0 | 0.00 | 0.00 | 0.00 | 84 | 1009.6 |
| 20260507222803 | 47 | 167 | 3.0 | 7.0 | 0.00 | 0.00 | 0.00 | 84 | 1009.6 |
| 20260507222604 | 47 | 176 | 3.0 | 7.0 | 0.00 | 0.00 | 0.00 | 84 | 1009.6 |
| 20260507222403 | 47 | 186 | 2.0 | 7.0 | 0.00 | 0.00 | 0.00 | 84 | 1009.7 |
| 20260507222203 | 47 | 193 | 3.0 | 11.0 | 0.00 | 0.00 | 0.00 | 85 | 1009.8 |
| 20260507222004 | 47 | 195 | 3.0 | 11.0 | 0.00 | 0.00 | 0.00 | 84 | 1009.8 |
| 20260507221804 | 47 | 197 | 3.0 | 11.0 | 0.00 | 0.00 | 0.00 | 85 | 1009.9 |
| 20260507221603 | 47 | 197 | 2.0 | 11.0 | 0.00 | 0.00 | 0.00 | 85 | 1009.8 |
| 20260507221404 | 47 | 197 | 2.0 | 11.0 | 0.00 | 0.00 | 0.00 | 85 | 1009.8 |
| 20260507221203 | 47 | 198 | 2.0 | 7.0 | 0.00 | 0.00 | 0.00 | 85 | 1009.8 |
| 20260507221004 | 47 | 198 | 2.0 | 7.0 | 0.00 | 0.00 | 0.00 | 85 | 1009.9 |
| 20260507220805 | 47 | 198 | 3.0 | 8.0 | 0.00 | 0.00 | 0.00 | 85 | 1009.8 |
| 20260507220603 | 47 | 198 | 3.0 | 8.0 | 0.00 | 0.00 | 0.00 | 85 | 1009.8 |
| 20260507220403 | 47 | 196 | 3.0 | 8.0 | 0.00 | 0.00 | 0.00 | 85 | 1009.9 |
| 20260507220204 | 47 | 195 | 3.0 | 8.0 | 0.00 | 0.00 | 0.00 | 86 | 1009.8 |
| 20260507220003 | 47 | 193 | 3.0 | 8.0 | 0.00 | 0.00 | 0.00 | 86 | 1009.9 |
| 20260507215803 | 47 | 191 | 2.0 | 6.0 | 0.00 | 0.00 | 0.00 | 86 | 1009.8 |
| 20260507215604 | 47 | 191 | 2.0 | 7.0 | 0.00 | 0.00 | 0.00 | 86 | 1009.9 |
| 20260507215403 | 46 | 187 | 2.0 | 7.0 | 0.00 | 0.00 | 0.00 | 86 | 1009.9 |
| 20260507215204 | 46 | 184 | 3.0 | 11.0 | 0.00 | 0.00 | 0.00 | 86 | 1009.8 |
| 20260507215004 | 46 | 186 | 3.0 | 11.0 | 0.00 | 0.00 | 0.00 | 86 | 1009.9 |
| 20260507214804 | 46 | 184 | 3.0 | 11.0 | 0.00 | 0.00 | 0.00 | 87 | 1009.8 |
| 20260507214605 | 46 | 181 | 3.0 | 11.0 | 0.00 | 0.00 | 0.00 | 87 | 1009.7 |
| 20260507214403 | 46 | 180 | 3.0 | 11.0 | 0.00 | 0.00 | 0.00 | 87 | 1009.8 |
| 20260507214204 | 46 | 181 | 2.0 | 10.0 | 0.00 | 0.00 | 0.00 | 87 | 1009.8 |
| 20260507214004 | 46 | 173 | 1.0 | 10.0 | 0.00 | 0.00 | 0.00 | 86 | 1009.8 |
| 20260507213804 | 46 | 166 | 1.0 | 5.0 | 0.00 | 0.00 | 0.00 | 86 | 1009.8 |
| 20260507213603 | 46 | 166 | 0.0 | 5.0 | 0.00 | 0.00 | 0.00 | 86 | 1009.8 |
| 20260507213404 | 46 | 166 | 0.0 | 4.0 | 0.00 | 0.00 | 0.00 | 86 | 1009.8 |
| 20260507213204 | 46 | 0 | 0.0 | 0.0 | 0.00 | 0.00 | 0.00 | 86 | 1009.8 |
| 20260507213003 | 46 | 0 | 0.0 | 0.0 | 0.00 | 0.00 | 0.00 | 86 | 1009.8 |
| 20260507212803 | 46 | 0 | 0.0 | 0.0 | 0.00 | 0.00 | 0.00 | 86 | 1009.8 |
| 20260507212604 | 46 | 0 | 0.0 | 0.0 | 0.00 | 0.00 | 0.00 | 86 | 1009.8 |
| 20260507212403 | 46 | 0 | 0.0 | 0.0 | 0.00 | 0.00 | 0.00 | 86 | 1009.9 |
| 20260507212203 | 46 | 0 | 0.0 | 0.0 | 0.00 | 0.00 | 0.00 | 86 | 1009.9 |
| 20260507212003 | 46 | 0 | 0.0 | 0.0 | 0.00 | 0.00 | 0.00 | 85 | 1009.9 |
| 20260507211804 | 46 | 0 | 0.0 | 0.0 | 0.00 | 0.00 | 0.00 | 85 | 1009.8 |
| 20260507211604 | 46 | 163 | 0.0 | 2.0 | 0.00 | 0.00 | 0.00 | 85 | 1009.8 |
| 20260507211403 | 46 | 163 | 0.0 | 2.0 | 0.00 | 0.00 | 0.00 | 85 | 1009.8 |
| 20260507211203 | 46 | 163 | 0.0 | 2.0 | 0.00 | 0.00 | 0.00 | 85 | 1009.8 |
| 20260507211003 | 46 | 162 | 1.0 | 5.0 | 0.00 | 0.00 | 0.00 | 85 | 1009.8 |
| 20260507210805 | 46 | 162 | 1.0 | 5.0 | 0.00 | 0.00 | 0.00 | 85 | 1009.8 |
| 20260507210605 | 46 | 162 | 2.0 | 6.0 | 0.00 | 0.00 | 0.00 | 85 | 1009.8 |
| 20260507210403 | 46 | 165 | 2.0 | 6.0 | 0.00 | 0.00 | 0.00 | 85 | 1009.7 |
| 20260507210204 | 46 | 167 | 3.0 | 6.0 | 0.00 | 0.00 | 0.00 | 85 | 1009.6 |
| 20260507210003 | 47 | 169 | 3.0 | 6.0 | 0.00 | 0.00 | 0.00 | 85 | 1009.7 |
| 20260507205804 | 47 | 171 | 3.0 | 6.0 | 0.00 | 0.00 | 0.00 | 85 | 1009.6 |
| 20260507205603 | 47 | 175 | 3.0 | 6.0 | 0.00 | 0.00 | 0.00 | 85 | 1009.7 |
| 20260507205404 | 47 | 175 | 2.0 | 5.0 | 0.00 | 0.00 | 0.00 | 85 | 1009.8 |
| 20260507205203 | 47 | 175 | 2.0 | 5.0 | 0.00 | 0.00 | 0.00 | 85 | 1009.8 |
| 20260507205004 | 47 | 175 | 2.0 | 5.0 | 0.00 | 0.00 | 0.00 | 85 | 1009.9 |
| 20260507204803 | 47 | 175 | 1.0 | 4.0 | 0.00 | 0.00 | 0.00 | 85 | 1009.9 |
| 20260507204605 | 47 | 175 | 1.0 | 5.0 | 0.00 | 0.00 | 0.00 | 85 | 1009.9 |
| 20260507204403 | 47 | 175 | 2.0 | 5.0 | 0.00 | 0.00 | 0.00 | 85 | 1009.9 |
| 20260507204203 | 47 | 175 | 2.0 | 5.0 | 0.00 | 0.00 | 0.00 | 85 | 1009.8 |
| 20260507204004 | 47 | 175 | 2.0 | 5.0 | 0.00 | 0.00 | 0.00 | 85 | 1009.8 |
| 20260507203804 | 47 | 175 | 2.0 | 5.0 | 0.00 | 0.00 | 0.00 | 85 | 1009.8 |
| 20260507203604 | 47 | 175 | 2.0 | 4.0 | 0.00 | 0.00 | 0.00 | 85 | 1009.8 |
| 20260507203403 | 47 | 175 | 1.0 | 4.0 | 0.00 | 0.00 | 0.00 | 85 | 1009.8 |
| 20260507203203 | 47 | 174 | 1.0 | 4.0 | 0.00 | 0.00 | 0.00 | 84 | 1009.8 |
| 20260507203003 | 47 | 174 | 1.0 | 4.0 | 0.00 | 0.00 | 0.00 | 84 | 1009.8 |
| 20260507202803 | 47 | 174 | 2.0 | 6.0 | 0.00 | 0.00 | 0.00 | 84 | 1009.8 |
| 20260507202605 | 47 | 173 | 2.0 | 6.0 | 0.00 | 0.00 | 0.00 | 84 | 1009.7 |
| 20260507202404 | 47 | 170 | 2.0 | 7.0 | 0.00 | 0.00 | 0.00 | 84 | 1009.7 |
| 20260507202203 | 47 | 167 | 2.0 | 7.0 | 0.00 | 0.00 | 0.00 | 84 | 1009.7 |
| 20260507202003 | 47 | 163 | 2.0 | 7.0 | 0.00 | 0.00 | 0.00 | 84 | 1009.7 |
| 20260507201803 | 48 | 157 | 2.0 | 7.0 | 0.00 | 0.00 | 0.00 | 84 | 1009.7 |
| 20260507201604 | 48 | 153 | 2.0 | 7.0 | 0.00 | 0.00 | 0.00 | 84 | 1009.7 |
| 20260507201403 | 48 | 148 | 3.0 | 7.0 | 0.00 | 0.00 | 0.00 | 84 | 1009.7 |
| 20260507201205 | 48 | 147 | 3.0 | 7.0 | 0.00 | 0.00 | 0.00 | 84 | 1009.6 |
| 20260507201004 | 48 | 146 | 3.0 | 7.0 | 0.00 | 0.00 | 0.00 | 84 | 1009.7 |
| 20260507200803 | 48 | 145 | 4.0 | 10.0 | 0.00 | 0.00 | 0.00 | 84 | 1009.7 |
| 20260507200603 | 48 | 146 | 4.0 | 10.0 | 0.00 | 0.00 | 0.00 | 84 | 1009.6 |
| 20260507200404 | 48 | 147 | 4.0 | 10.0 | 0.00 | 0.00 | 0.00 | 84 | 1009.6 |
| 20260507200203 | 48 | 149 | 4.0 | 10.0 | 0.00 | 0.00 | 0.00 | 84 | 1009.6 |
| 20260507200003 | 48 | 152 | 4.0 | 10.0 | 0.00 | 0.00 | 0.00 | 84 | 1009.7 |
| 20260507195803 | 48 | 157 | 4.0 | 7.0 | 0.00 | 0.00 | 0.00 | 83 | 1009.7 |
| 20260507195604 | 48 | 160 | 3.0 | 8.0 | 0.00 | 0.00 | 0.00 | 83 | 1009.6 |
| 20260507195403 | 48 | 163 | 3.0 | 8.0 | 0.00 | 0.00 | 0.00 | 83 | 1009.6 |
| 20260507195203 | 48 | 168 | 3.0 | 8.0 | 0.00 | 0.00 | 0.00 | 83 | 1009.6 |
| 20260507195003 | 49 | 167 | 3.0 | 8.0 | 0.00 | 0.00 | 0.00 | 83 | 1009.6 |
| 20260507194803 | 49 | 162 | 3.0 | 7.0 | 0.00 | 0.00 | 0.00 | 83 | 1009.6 |
| 20260507194604 | 49 | 157 | 3.0 | 8.0 | 0.00 | 0.00 | 0.00 | 83 | 1009.6 |
| 20260507194403 | 49 | 152 | 3.0 | 8.0 | 0.00 | 0.00 | 0.00 | 83 | 1009.6 |
| 20260507194203 | 49 | 148 | 4.0 | 8.0 | 0.00 | 0.00 | 0.00 | 83 | 1009.6 |
| 20260507194003 | 49 | 146 | 4.0 | 10.0 | 0.00 | 0.00 | 0.00 | 83 | 1009.5 |
| 20260507193804 | 49 | 146 | 4.0 | 10.0 | 0.00 | 0.00 | 0.00 | 83 | 1009.6 |
| 20260507193603 | 49 | 146 | 4.0 | 10.0 | 0.00 | 0.00 | 0.00 | 83 | 1009.6 |
| 20260507193403 | 49 | 145 | 5.0 | 10.0 | 0.00 | 0.00 | 0.00 | 83 | 1009.5 |
| 20260507193204 | 49 | 146 | 5.0 | 10.0 | 0.00 | 0.00 | 0.00 | 83 | 1009.6 |
| 20260507193003 | 49 | 146 | 4.0 | 10.0 | 0.00 | 0.00 | 0.00 | 82 | 1009.6 |
| 20260507192803 | 49 | 146 | 4.0 | 10.0 | 0.00 | 0.00 | 0.00 | 82 | 1009.6 |
| 20260507192603 | 49 | 146 | 4.0 | 10.0 | 0.00 | 0.00 | 0.00 | 82 | 1009.6 |
| 20260507192404 | 49 | 146 | 4.0 | 10.0 | 0.00 | 0.00 | 0.00 | 82 | 1009.5 |
| 20260507192203 | 49 | 145 | 4.0 | 10.0 | 0.00 | 0.00 | 0.00 | 82 | 1009.5 |
| 20260507192004 | 49 | 145 | 4.0 | 10.0 | 0.00 | 0.00 | 0.00 | 82 | 1009.5 |
| 20260507191803 | 49 | 145 | 4.0 | 10.0 | 0.00 | 0.00 | 0.00 | 82 | 1009.6 |
| 20260507191603 | 50 | 146 | 4.0 | 7.0 | 0.00 | 0.00 | 0.00 | 82 | 1009.6 |
| 20260507191403 | 50 | 146 | 4.0 | 11.0 | 0.00 | 0.00 | 0.00 | 82 | 1009.5 |
| 20260507191203 | 50 | 146 | 4.0 | 11.0 | 0.00 | 0.00 | 0.00 | 82 | 1009.5 |
| 20260507191004 | 50 | 145 | 5.0 | 11.0 | 0.00 | 0.00 | 0.00 | 82 | 1009.6 |
| 20260507190803 | 50 | 147 | 5.0 | 11.0 | 0.00 | 0.00 | 0.00 | 82 | 1009.6 |
| 20260507190604 | 50 | 147 | 5.0 | 11.0 | 0.00 | 0.00 | 0.00 | 82 | 1009.6 |
| 20260507190403 | 50 | 147 | 4.0 | 11.0 | 0.00 | 0.00 | 0.00 | 82 | 1009.6 |
| 20260507190203 | 50 | 146 | 5.0 | 11.0 | 0.00 | 0.00 | 0.00 | 82 | 1009.6 |
| 20260507190004 | 50 | 148 | 4.0 | 11.0 | 0.00 | 0.00 | 0.00 | 82 | 1009.5 |
| 20260507185804 | 50 | 147 | 4.0 | 11.0 | 0.00 | 0.00 | 0.00 | 82 | 1009.5 |
| 20260507185604 | 50 | 147 | 5.0 | 12.0 | 0.00 | 0.00 | 0.00 | 82 | 1009.5 |
| 20260507185404 | 50 | 147 | 5.0 | 12.0 | 0.00 | 0.00 | 0.00 | 82 | 1009.6 |
| 20260507185203 | 50 | 147 | 6.0 | 12.0 | 0.00 | 0.00 | 0.00 | 82 | 1009.6 |
| 20260507185004 | 50 | 148 | 6.0 | 12.0 | 0.00 | 0.00 | 0.00 | 82 | 1009.6 |
| 20260507184803 | 50 | 148 | 6.0 | 12.0 | 0.00 | 0.00 | 0.00 | 82 | 1009.5 |
| 20260507184603 | 50 | 147 | 5.0 | 12.0 | 0.00 | 0.00 | 0.00 | 82 | 1009.5 |
| 20260507184404 | 51 | 146 | 5.0 | 13.0 | 0.00 | 0.00 | 0.00 | 82 | 1009.4 |
| 20260507184203 | 51 | 151 | 4.0 | 13.0 | 0.00 | 0.00 | 0.00 | 82 | 1009.5 |
| 20260507184003 | 51 | 154 | 3.0 | 13.0 | 0.00 | 0.00 | 0.00 | 82 | 1009.6 |
| 20260507183804 | 51 | 156 | 3.0 | 13.0 | 0.00 | 0.00 | 0.00 | 81 | 1009.6 |
| 20260507183603 | 51 | 157 | 3.0 | 13.0 | 0.00 | 0.00 | 0.00 | 81 | 1009.7 |
| 20260507183403 | 51 | 156 | 3.0 | 10.0 | 0.00 | 0.00 | 0.00 | 81 | 1009.6 |
| 20260507183204 | 51 | 148 | 3.0 | 10.0 | 0.00 | 0.00 | 0.00 | 81 | 1009.6 |
| 20260507183003 | 51 | 147 | 4.0 | 10.0 | 0.00 | 0.00 | 0.00 | 81 | 1009.7 |
| 20260507182804 | 51 | 144 | 4.0 | 10.0 | 0.00 | 0.00 | 0.00 | 81 | 1009.6 |
| 20260507182603 | 51 | 145 | 4.0 | 11.0 | 0.00 | 0.00 | 0.00 | 81 | 1009.6 |
| 20260507182403 | 51 | 149 | 4.0 | 11.0 | 0.00 | 0.00 | 0.00 | 81 | 1009.6 |
| 20260507182203 | 51 | 148 | 5.0 | 11.0 | 0.00 | 0.00 | 0.00 | 81 | 1009.5 |
| 20260507182004 | 51 | 146 | 5.0 | 11.0 | 0.00 | 0.00 | 0.00 | 81 | 1009.6 |
| 20260507181803 | 51 | 147 | 5.0 | 13.0 | 0.00 | 0.00 | 0.00 | 81 | 1009.6 |
| 20260507181604 | 51 | 146 | 5.0 | 13.0 | 0.00 | 0.00 | 0.00 | 81 | 1009.6 |
| 20260507181403 | 51 | 145 | 6.0 | 13.0 | 0.00 | 0.00 | 0.00 | 81 | 1009.6 |
| 20260507181205 | 51 | 147 | 5.0 | 13.0 | 0.00 | 0.00 | 0.00 | 81 | 1009.6 |
| 20260507181004 | 51 | 148 | 5.0 | 13.0 | 0.00 | 0.00 | 0.00 | 81 | 1009.6 |
| 20260507180803 | 51 | 149 | 5.0 | 12.0 | 0.00 | 0.00 | 0.00 | 81 | 1009.5 |
| 20260507180605 | 51 | 149 | 5.0 | 12.0 | 0.00 | 0.00 | 0.00 | 81 | 1009.5 |
| 20260507180403 | 50 | 149 | 6.0 | 12.0 | 0.00 | 0.00 | 0.00 | 81 | 1009.5 |
| 20260507180203 | 50 | 148 | 6.0 | 12.0 | 0.00 | 0.00 | 0.00 | 81 | 1009.6 |
| 20260507180004 | 50 | 148 | 7.0 | 12.0 | 0.00 | 0.00 | 0.00 | 81 | 1009.6 |
| 20260507175804 | 51 | 147 | 7.0 | 13.0 | 0.00 | 0.00 | 0.00 | 81 | 1009.6 |
| 20260507175604 | 51 | 148 | 7.0 | 14.0 | 0.00 | 0.00 | 0.00 | 81 | 1009.6 |
| 20260507175403 | 51 | 147 | 7.0 | 14.0 | 0.00 | 0.00 | 0.00 | 81 | 1009.5 |
| 20260507175205 | 51 | 148 | 7.0 | 14.0 | 0.00 | 0.00 | 0.00 | 81 | 1009.5 |
| 20260507175004 | 51 | 147 | 6.0 | 14.0 | 0.00 | 0.00 | 0.00 | 81 | 1009.6 |
| 20260507174804 | 51 | 146 | 6.0 | 14.0 | 0.00 | 0.00 | 0.00 | 81 | 1009.5 |
| 20260507174603 | 51 | 146 | 6.0 | 14.0 | 0.00 | 0.00 | 0.00 | 81 | 1009.5 |
| 20260507174403 | 51 | 145 | 6.0 | 14.0 | 0.00 | 0.00 | 0.00 | 81 | 1009.5 |
| 20260507174204 | 51 | 144 | 6.0 | 14.0 | 0.00 | 0.00 | 0.00 | 81 | 1009.5 |
| 20260507174003 | 51 | 145 | 7.0 | 14.0 | 0.00 | 0.00 | 0.00 | 81 | 1009.4 |
| 20260507173803 | 51 | 145 | 6.0 | 14.0 | 0.00 | 0.00 | 0.00 | 81 | 1009.5 |
| 20260507173604 | 51 | 145 | 6.0 | 14.0 | 0.00 | 0.00 | 0.00 | 81 | 1009.5 |
| 20260507173404 | 51 | 147 | 7.0 | 14.0 | 0.00 | 0.00 | 0.00 | 80 | 1009.5 |
| 20260507173204 | 51 | 148 | 7.0 | 14.0 | 0.00 | 0.00 | 0.00 | 80 | 1009.5 |
| 20260507173004 | 51 | 149 | 6.0 | 14.0 | 0.00 | 0.00 | 0.00 | 81 | 1009.5 |
| 20260507172804 | 51 | 151 | 7.0 | 14.0 | 0.00 | 0.00 | 0.00 | 80 | 1009.6 |
| 20260507172603 | 51 | 150 | 8.0 | 14.0 | 0.00 | 0.00 | 0.00 | 80 | 1009.6 |
| 20260507172403 | 51 | 149 | 7.0 | 14.0 | 0.00 | 0.00 | 0.00 | 80 | 1009.5 |
| 20260507172203 | 51 | 149 | 7.0 | 14.0 | 0.00 | 0.00 | 0.00 | 81 | 1009.6 |
| 20260507172004 | 51 | 148 | 7.0 | 14.0 | 0.00 | 0.00 | 0.00 | 81 | 1009.6 |
| 20260507171803 | 51 | 145 | 7.0 | 14.0 | 0.00 | 0.00 | 0.00 | 81 | 1009.6 |
| 20260507171603 | 51 | 145 | 6.0 | 12.0 | 0.00 | 0.00 | 0.00 | 82 | 1009.6 |
| 20260507171404 | 51 | 148 | 6.0 | 12.0 | 0.00 | 0.00 | 0.00 | 82 | 1009.6 |
| 20260507171204 | 51 | 148 | 6.0 | 12.0 | 0.00 | 0.00 | 0.00 | 81 | 1009.6 |
| 20260507171004 | 51 | 151 | 7.0 | 18.0 | 0.00 | 0.00 | 0.00 | 81 | 1009.6 |
| 20260507170803 | 51 | 151 | 7.0 | 18.0 | 0.00 | 0.00 | 0.00 | 81 | 1009.5 |
| 20260507170604 | 51 | 151 | 8.0 | 18.0 | 0.00 | 0.00 | 0.00 | 81 | 1009.6 |
| 20260507170403 | 51 | 150 | 8.0 | 18.0 | 0.00 | 0.00 | 0.00 | 81 | 1009.5 |
| 20260507170204 | 51 | 150 | 7.0 | 18.0 | 0.00 | 0.00 | 0.00 | 80 | 1009.5 |
| 20260507170004 | 51 | 150 | 6.0 | 18.0 | 0.00 | 0.00 | 0.00 | 81 | 1009.5 |
| 20260507165803 | 51 | 151 | 5.0 | 18.0 | 0.00 | 0.00 | 0.00 | 81 | 1009.6 |
| 20260507165603 | 51 | 151 | 4.0 | 10.0 | 0.00 | 0.00 | 0.00 | 81 | 1009.6 |
| 20260507165405 | 51 | 151 | 4.0 | 10.0 | 0.00 | 0.00 | 0.00 | 81 | 1009.7 |
| 20260507165203 | 51 | 153 | 5.0 | 12.0 | 0.00 | 0.00 | 0.00 | 81 | 1009.7 |
| 20260507165003 | 51 | 150 | 5.0 | 12.0 | 0.00 | 0.00 | 0.00 | 81 | 1009.7 |
| 20260507164803 | 51 | 150 | 5.0 | 12.0 | 0.00 | 0.00 | 0.00 | 81 | 1009.8 |
| 20260507164603 | 51 | 149 | 6.0 | 13.0 | 0.00 | 0.00 | 0.00 | 81 | 1009.8 |
| 20260507164403 | 51 | 149 | 6.0 | 13.0 | 0.00 | 0.00 | 0.00 | 81 | 1009.7 |
| 20260507164203 | 51 | 148 | 6.0 | 13.0 | 0.00 | 0.00 | 0.00 | 80 | 1009.7 |
| 20260507164005 | 51 | 148 | 6.0 | 13.0 | 0.00 | 0.00 | 0.00 | 80 | 1009.8 |
| 20260507163803 | 51 | 148 | 6.0 | 13.0 | 0.00 | 0.00 | 0.00 | 80 | 1009.8 |
| 20260507163603 | 52 | 152 | 6.0 | 13.0 | 0.00 | 0.00 | 0.00 | 80 | 1009.8 |
| 20260507163404 | 51 | 151 | 6.0 | 13.0 | 0.00 | 0.00 | 0.00 | 80 | 1009.7 |
| 20260507163203 | 52 | 151 | 6.0 | 13.0 | 0.00 | 0.00 | 0.00 | 80 | 1009.8 |
| 20260507163005 | 52 | 151 | 6.0 | 13.0 | 0.00 | 0.00 | 0.00 | 80 | 1009.8 |
| 20260507162804 | 52 | 151 | 6.0 | 13.0 | 0.00 | 0.00 | 0.00 | 80 | 1009.7 |
| 20260507162603 | 52 | 148 | 6.0 | 13.0 | 0.00 | 0.00 | 0.00 | 80 | 1009.7 |
| 20260507162403 | 52 | 148 | 6.0 | 14.0 | 0.00 | 0.00 | 0.00 | 80 | 1009.6 |
| 20260507162203 | 52 | 148 | 7.0 | 14.0 | 0.00 | 0.00 | 0.00 | 79 | 1009.6 |
| 20260507162004 | 52 | 149 | 7.0 | 14.0 | 0.00 | 0.00 | 0.00 | 79 | 1009.6 |
| 20260507161804 | 52 | 150 | 8.0 | 20.0 | 0.00 | 0.00 | 0.00 | 79 | 1009.6 |
| 20260507161604 | 52 | 150 | 9.0 | 20.0 | 0.00 | 0.00 | 0.00 | 79 | 1009.6 |
| 20260507161403 | 52 | 150 | 10.0 | 20.0 | 0.00 | 0.00 | 0.00 | 78 | 1009.6 |
| 20260507161203 | 52 | 149 | 10.0 | 20.0 | 0.00 | 0.00 | 0.00 | 77 | 1009.7 |
| 20260507161004 | 52 | 149 | 11.0 | 20.0 | 0.00 | 0.00 | 0.00 | 77 | 1009.6 |
| 20260507160803 | 52 | 148 | 11.0 | 19.0 | 0.00 | 0.00 | 0.00 | 77 | 1009.6 |
| 20260507160603 | 52 | 149 | 10.0 | 19.0 | 0.00 | 0.00 | 0.00 | 77 | 1009.6 |
| 20260507160404 | 52 | 151 | 9.0 | 19.0 | 0.00 | 0.00 | 0.00 | 77 | 1009.5 |
| 20260507160203 | 52 | 152 | 9.0 | 22.0 | 0.00 | 0.00 | 0.00 | 77 | 1009.5 |
| 20260507160003 | 52 | 152 | 9.0 | 22.0 | 0.00 | 0.00 | 0.00 | 77 | 1009.5 |
| 20260507155803 | 52 | 152 | 9.0 | 22.0 | 0.00 | 0.00 | 0.00 | 77 | 1009.6 |
| 20260507155603 | 52 | 151 | 8.0 | 22.0 | 0.00 | 0.00 | 0.00 | 77 | 1009.6 |
| 20260507155404 | 52 | 148 | 9.0 | 22.0 | 0.00 | 0.00 | 0.00 | 77 | 1009.5 |
| 20260507155205 | 52 | 147 | 8.0 | 17.0 | 0.00 | 0.00 | 0.00 | 78 | 1009.6 |
| 20260507155003 | 52 | 145 | 7.0 | 17.0 | 0.00 | 0.00 | 0.00 | 79 | 1009.5 |
| 20260507154803 | 52 | 144 | 7.0 | 17.0 | 0.00 | 0.00 | 0.00 | 79 | 1009.6 |
| 20260507154603 | 52 | 143 | 7.0 | 16.0 | 0.00 | 0.00 | 0.00 | 79 | 1009.7 |
| 20260507154405 | 52 | 144 | 7.0 | 16.0 | 0.00 | 0.00 | 0.00 | 79 | 1009.6 |
| 20260507154203 | 53 | 144 | 7.0 | 16.0 | 0.00 | 0.00 | 0.00 | 79 | 1009.6 |
| 20260507154003 | 53 | 145 | 7.0 | 16.0 | 0.00 | 0.00 | 0.00 | 79 | 1009.6 |
| 20260507153803 | 53 | 146 | 8.0 | 17.0 | 0.00 | 0.00 | 0.00 | 79 | 1009.6 |